Wetterdaten: Freitag, 19.07.2013
Datum Zeit Temp. Aussen +5cm Feuchte Auss Luftdruck Regen Sonnenschein Regendauer UV Solar Windben
19.07.2013 00:00 21,3 C 19,6 C 75 % 1023,1 hPa 0,0 l/m 0 min 0 min 0,0 UV-I 0 W/m 10,3 km/h (2 Bft)
19.07.2013 00:02 21,3 C 19,6 C 75 % 1023,1 hPa 0,0 l/m 0 min 0 min 0,0 UV-I 0 W/m 10,3 km/h (2 Bft)
19.07.2013 00:06 21,2 C 19,6 C 76 % 1023,2 hPa 0,0 l/m 0 min 0 min 0,0 UV-I 0 W/m 10,3 km/h (2 Bft)
19.07.2013 00:08 21,1 C 19,6 C 76 % 1023,2 hPa 0,0 l/m 0 min 0 min 0,0 UV-I 0 W/m 10,3 km/h (2 Bft)
19.07.2013 00:10 21,1 C 19,6 C 76 % 1023,2 hPa 0,0 l/m 0 min 0 min 0,0 UV-I 0 W/m 12,9 km/h (3 Bft)
19.07.2013 00:12 21,0 C 19,6 C 77 % 1023,2 hPa 0,0 l/m 0 min 0 min 0,0 UV-I 0 W/m 10,3 km/h (2 Bft)
19.07.2013 00:14 21,0 C 19,6 C 77 % 1023,2 hPa 0,0 l/m 0 min 0 min 0,0 UV-I 0 W/m 10,3 km/h (2 Bft)
19.07.2013 00:16 20,9 C 19,6 C 77 % 1023,2 hPa 0,0 l/m 0 min 0 min 0,0 UV-I 0 W/m 10,3 km/h (2 Bft)
19.07.2013 00:18 20,9 C 19,6 C 77 % 1023,2 hPa 0,0 l/m 0 min 0 min 0,0 UV-I 0 W/m 12,9 km/h (3 Bft)
19.07.2013 00:20 20,9 C 19,6 C 77 % 1023,3 hPa 0,0 l/m 0 min 0 min 0,0 UV-I 0 W/m 7,7 km/h (2 Bft)
19.07.2013 00:22 20,8 C 19,6 C 77 % 1023,2 hPa 0,0 l/m 0 min 0 min 0,0 UV-I 0 W/m 7,7 km/h (2 Bft)
19.07.2013 00:24 20,8 C 19,6 C 77 % 1023,2 hPa 0,0 l/m 0 min 0 min 0,0 UV-I 0 W/m 7,7 km/h (2 Bft)
19.07.2013 00:26 20,8 C 19,6 C 78 % 1023,2 hPa 0,0 l/m 0 min 0 min 0,0 UV-I 0 W/m 10,3 km/h (2 Bft)
19.07.2013 00:28 20,8 C 19,0 C 78 % 1023,2 hPa 0,0 l/m 0 min 0 min 0,0 UV-I 0 W/m 7,7 km/h (2 Bft)
19.07.2013 00:30 20,8 C 19,0 C 78 % 1023,3 hPa 0,0 l/m 0 min 0 min 0,0 UV-I 0 W/m 2,6 km/h (1 Bft)
19.07.2013 00:32 20,7 C 19,0 C 78 % 1023,3 hPa 0,0 l/m 0 min 0 min 0,0 UV-I 0 W/m 10,3 km/h (2 Bft)
19.07.2013 00:34 20,7 C 19,0 C 78 % 1023,3 hPa 0,0 l/m 0 min 0 min 0,0 UV-I 0 W/m 7,7 km/h (2 Bft)
19.07.2013 00:36 20,7 C 19,0 C 78 % 1023,3 hPa 0,0 l/m 0 min 0 min 0,0 UV-I 0 W/m 0,0 km/h (0 Bft)
19.07.2013 00:38 20,7 C 19,0 C 78 % 1023,4 hPa 0,0 l/m 0 min 0 min 0,0 UV-I 0 W/m 0,0 km/h (0 Bft)
19.07.2013 00:40 20,6 C 19,0 C 78 % 1023,4 hPa 0,0 l/m 0 min 0 min 0,0 UV-I 0 W/m 7,7 km/h (2 Bft)
19.07.2013 00:42 20,6 C 19,0 C 79 % 1023,4 hPa 0,0 l/m 0 min 0 min 0,0 UV-I 0 W/m 10,3 km/h (2 Bft)
19.07.2013 00:44 20,6 C 19,0 C 79 % 1023,4 hPa 0,0 l/m 0 min 0 min 0,0 UV-I 0 W/m 12,9 km/h (3 Bft)
19.07.2013 00:46 20,6 C 19,0 C 79 % 1023,4 hPa 0,0 l/m 0 min 0 min 0,0 UV-I 0 W/m 10,3 km/h (2 Bft)
19.07.2013 00:48 20,5 C 19,0 C 79 % 1023,5 hPa 0,0 l/m 0 min 0 min 0,0 UV-I 0 W/m 10,3 km/h (2 Bft)
19.07.2013 00:50 20,4 C 19,0 C 79 % 1023,4 hPa 0,0 l/m 0 min 0 min 0,0 UV-I 0 W/m 7,7 km/h (2 Bft)
19.07.2013 00:52 20,4 C 19,0 C 79 % 1023,4 hPa 0,0 l/m 0 min 0 min 0,0 UV-I 0 W/m 12,9 km/h (3 Bft)
19.07.2013 00:54 20,4 C 19,0 C 79 % 1023,4 hPa 0,0 l/m 0 min 0 min 0,0 UV-I 0 W/m 7,7 km/h (2 Bft)
19.07.2013 00:56 20,4 C 19,0 C 79 % 1023,5 hPa 0,0 l/m 0 min 0 min 0,0 UV-I 0 W/m 7,7 km/h (2 Bft)
19.07.2013 00:58 20,3 C 19,0 C 79 % 1023,5 hPa 0,0 l/m 0 min 0 min 0,0 UV-I 0 W/m 2,6 km/h (1 Bft)
19.07.2013 01:00 20,3 C 19,0 C 80 % 1023,5 hPa 0,0 l/m 0 min 0 min 0,0 UV-I 0 W/m 7,7 km/h (2 Bft)
19.07.2013 01:02 20,3 C 19,0 C 80 % 1023,5 hPa 0,0 l/m 0 min 0 min 0,0 UV-I 0 W/m 12,9 km/h (3 Bft)
19.07.2013 01:06 20,2 C 18,4 C 80 % 1023,5 hPa 0,0 l/m 0 min 0 min 0,0 UV-I 0 W/m 10,3 km/h (2 Bft)
19.07.2013 01:08 20,2 C 18,4 C 80 % 1023,5 hPa 0,0 l/m 0 min 0 min 0,0 UV-I 0 W/m 7,7 km/h (2 Bft)
19.07.2013 01:10 20,1 C 18,4 C 80 % 1023,5 hPa 0,0 l/m 0 min 0 min 0,0 UV-I 0 W/m 5,1 km/h (1 Bft)
19.07.2013 01:12 20,1 C 18,4 C 80 % 1023,5 hPa 0,0 l/m 0 min 0 min 0,0 UV-I 0 W/m 2,6 km/h (1 Bft)
19.07.2013 01:14 20,1 C 18,4 C 80 % 1023,5 hPa 0,0 l/m 0 min 0 min 0,0 UV-I 0 W/m 0,0 km/h (0 Bft)
19.07.2013 01:16 20,1 C 18,4 C 80 % 1023,6 hPa 0,0 l/m 0 min 0 min 0,0 UV-I 0 W/m 0,0 km/h (0 Bft)
19.07.2013 01:18 20,1 C 18,4 C 80 % 1023,5 hPa 0,0 l/m 0 min 0 min 0,0 UV-I 0 W/m 2,6 km/h (1 Bft)
19.07.2013 01:20 20,0 C 18,4 C 80 % 1023,6 hPa 0,0 l/m 0 min 0 min 0,0 UV-I 0 W/m 0,0 km/h (0 Bft)
19.07.2013 01:22 20,0 C 18,4 C 80 % 1023,6 hPa 0,0 l/m 0 min 0 min 0,0 UV-I 0 W/m 0,0 km/h (0 Bft)
19.07.2013 01:24 19,9 C 18,4 C 80 % 1023,6 hPa 0,0 l/m 0 min 0 min 0,0 UV-I 0 W/m 2,6 km/h (1 Bft)
19.07.2013 01:26 19,9 C 18,4 C 80 % 1023,6 hPa 0,0 l/m 0 min 0 min 0,0 UV-I 0 W/m 0,0 km/h (0 Bft)
19.07.2013 01:28 19,9 C 18,4 C 80 % 1023,6 hPa 0,0 l/m 0 min 0 min 0,0 UV-I 0 W/m 0,0 km/h (0 Bft)
19.07.2013 01:30 19,9 C 18,4 C 80 % 1023,7 hPa 0,0 l/m 0 min 0 min 0,0 UV-I 0 W/m 0,0 km/h (0 Bft)
19.07.2013 01:32 19,9 C 18,4 C 80 % 1023,7 hPa 0,0 l/m 0 min 0 min 0,0 UV-I 0 W/m 0,0 km/h (0 Bft)
19.07.2013 01:34 19,8 C 18,4 C 81 % 1023,7 hPa 0,0 l/m 0 min 0 min 0,0 UV-I 0 W/m 0,0 km/h (0 Bft)
19.07.2013 01:36 19,8 C 18,4 C 81 % 1023,7 hPa 0,0 l/m 0 min 0 min 0,0 UV-I 0 W/m 0,0 km/h (0 Bft)
19.07.2013 01:38 19,8 C 18,4 C 81 % 1023,6 hPa 0,0 l/m 0 min 0 min 0,0 UV-I 0 W/m 0,0 km/h (0 Bft)
19.07.2013 01:40 19,8 C 17,9 C 81 % 1023,6 hPa 0,0 l/m 0 min 0 min 0,0 UV-I 0 W/m 2,6 km/h (1 Bft)
19.07.2013 01:42 19,8 C 17,9 C 81 % 1023,7 hPa 0,0 l/m 0 min 0 min 0,0 UV-I 0 W/m 0,0 km/h (0 Bft)
19.07.2013 01:44 19,7 C 17,9 C 81 % 1023,6 hPa 0,0 l/m 0 min 0 min 0,0 UV-I 0 W/m 0,0 km/h (0 Bft)
19.07.2013 01:46 19,7 C 17,9 C 81 % 1023,6 hPa 0,0 l/m 0 min 0 min 0,0 UV-I 0 W/m 0,0 km/h (0 Bft)
19.07.2013 01:48 19,7 C 17,9 C 81 % 1023,7 hPa 0,0 l/m 0 min 0 min 0,0 UV-I 0 W/m 0,0 km/h (0 Bft)
19.07.2013 01:50 19,7 C 17,9 C 81 % 1023,6 hPa 0,0 l/m 0 min 0 min 0,0 UV-I 0 W/m 0,0 km/h (0 Bft)
19.07.2013 01:52 19,6 C 17,9 C 81 % 1023,6 hPa 0,0 l/m 0 min 0 min 0,0 UV-I 0 W/m 0,0 km/h (0 Bft)
19.07.2013 01:54 19,6 C 17,3 C 81 % 1023,6 hPa 0,0 l/m 0 min 0 min 0,0 UV-I 0 W/m 0,0 km/h (0 Bft)
19.07.2013 01:56 19,6 C 17,3 C 81 % 1023,6 hPa 0,0 l/m 0 min 0 min 0,0 UV-I 0 W/m 0,0 km/h (0 Bft)
19.07.2013 01:58 19,6 C 17,3 C 81 % 1023,6 hPa 0,0 l/m 0 min 0 min 0,0 UV-I 0 W/m 0,0 km/h (0 Bft)
19.07.2013 02:00 19,5 C 17,3 C 81 % 1023,6 hPa 0,0 l/m 0 min 0 min 0,0 UV-I 0 W/m 0,0 km/h (0 Bft)
19.07.2013 02:02 19,5 C 17,3 C 81 % 1023,6 hPa 0,0 l/m 0 min 0 min 0,0 UV-I 0 W/m 0,0 km/h (0 Bft)
19.07.2013 02:06 19,4 C 16,8 C 81 % 1023,6 hPa 0,0 l/m 0 min 0 min 0,0 UV-I 0 W/m 0,0 km/h (0 Bft)
19.07.2013 02:08 19,4 C 16,8 C 81 % 1023,6 hPa 0,0 l/m 0 min 0 min 0,0 UV-I 0 W/m 0,0 km/h (0 Bft)
19.07.2013 02:10 19,3 C 16,8 C 81 % 1023,6 hPa 0,0 l/m 0 min 0 min 0,0 UV-I 0 W/m 0,0 km/h (0 Bft)
19.07.2013 02:12 19,3 C 16,8 C 82 % 1023,6 hPa 0,0 l/m 0 min 0 min 0,0 UV-I 0 W/m 0,0 km/h (0 Bft)
19.07.2013 02:14 19,3 C 16,8 C 82 % 1023,6 hPa 0,0 l/m 0 min 0 min 0,0 UV-I 0 W/m 0,0 km/h (0 Bft)
19.07.2013 02:16 19,2 C 16,8 C 82 % 1023,6 hPa 0,0 l/m 0 min 0 min 0,0 UV-I 0 W/m 0,0 km/h (0 Bft)
19.07.2013 02:18 19,2 C 16,8 C 82 % 1023,6 hPa 0,0 l/m 0 min 0 min 0,0 UV-I 0 W/m 0,0 km/h (0 Bft)
19.07.2013 02:20 19,1 C 16,2 C 82 % 1023,5 hPa 0,0 l/m 0 min 0 min 0,0 UV-I 0 W/m 0,0 km/h (0 Bft)
19.07.2013 02:22 19,1 C 16,2 C 82 % 1023,6 hPa 0,0 l/m 0 min 0 min 0,0 UV-I 0 W/m 0,0 km/h (0 Bft)
19.07.2013 02:24 19,1 C 16,2 C 82 % 1023,6 hPa 0,0 l/m 0 min 0 min 0,0 UV-I 0 W/m 2,6 km/h (1 Bft)
19.07.2013 02:26 19,0 C 16,8 C 82 % 1023,6 hPa 0,0 l/m 0 min 0 min 0,0 UV-I 0 W/m 0,0 km/h (0 Bft)
19.07.2013 02:28 18,9 C 16,8 C 82 % 1023,6 hPa 0,0 l/m 0 min 0 min 0,0 UV-I 0 W/m 0,0 km/h (0 Bft)
19.07.2013 02:30 18,9 C 16,8 C 83 % 1023,6 hPa 0,0 l/m 0 min 0 min 0,0 UV-I 0 W/m 0,0 km/h (0 Bft)
19.07.2013 02:32 18,8 C 16,8 C 83 % 1023,6 hPa 0,0 l/m 0 min 0 min 0,0 UV-I 0 W/m 0,0 km/h (0 Bft)
19.07.2013 02:34 18,8 C 16,8 C 83 % 1023,5 hPa 0,0 l/m 0 min 0 min 0,0 UV-I 0 W/m 2,6 km/h (1 Bft)
19.07.2013 02:36 18,8 C 16,8 C 83 % 1023,5 hPa 0,0 l/m 0 min 0 min 0,0 UV-I 0 W/m 0,0 km/h (0 Bft)
19.07.2013 02:38 18,8 C 16,8 C 83 % 1023,4 hPa 0,0 l/m 0 min 0 min 0,0 UV-I 0 W/m 0,0 km/h (0 Bft)
19.07.2013 02:40 18,7 C 16,8 C 83 % 1023,4 hPa 0,0 l/m 0 min 0 min 0,0 UV-I 0 W/m 0,0 km/h (0 Bft)
19.07.2013 02:42 18,7 C 16,8 C 83 % 1023,4 hPa 0,0 l/m 0 min 0 min 0,0 UV-I 0 W/m 0,0 km/h (0 Bft)
19.07.2013 02:44 18,7 C 16,8 C 83 % 1023,5 hPa 0,0 l/m 0 min 0 min 0,0 UV-I 0 W/m 0,0 km/h (0 Bft)
19.07.2013 02:46 18,6 C 16,8 C 83 % 1023,4 hPa 0,0 l/m 0 min 0 min 0,0 UV-I 0 W/m 0,0 km/h (0 Bft)
19.07.2013 02:48 18,6 C 16,8 C 84 % 1023,4 hPa 0,0 l/m 0 min 0 min 0,0 UV-I 0 W/m 0,0 km/h (0 Bft)
19.07.2013 02:50 18,6 C 16,8 C 84 % 1023,3 hPa 0,0 l/m 0 min 0 min 0,0 UV-I 0 W/m 0,0 km/h (0 Bft)
19.07.2013 02:52 18,5 C 16,8 C 84 % 1023,4 hPa 0,0 l/m 0 min 0 min 0,0 UV-I 0 W/m 0,0 km/h (0 Bft)
19.07.2013 02:54 18,5 C 16,8 C 84 % 1023,4 hPa 0,0 l/m 0 min 0 min 0,0 UV-I 0 W/m 2,6 km/h (1 Bft)
19.07.2013 02:56 18,4 C 16,8 C 84 % 1023,5 hPa 0,0 l/m 0 min 0 min 0,0 UV-I 0 W/m 0,0 km/h (0 Bft)
19.07.2013 02:58 18,4 C 16,8 C 84 % 1023,4 hPa 0,0 l/m 0 min 0 min 0,0 UV-I 0 W/m 0,0 km/h (0 Bft)
19.07.2013 03:00 18,4 C 16,8 C 84 % 1023,5 hPa 0,0 l/m 0 min 0 min 0,0 UV-I 0 W/m 0,0 km/h (0 Bft)
19.07.2013 03:02 18,4 C 16,8 C 84 % 1023,5 hPa 0,0 l/m 0 min 0 min 0,0 UV-I 0 W/m 0,0 km/h (0 Bft)
19.07.2013 03:06 18,3 C 16,8 C 84 % 1023,5 hPa 0,0 l/m 0 min 0 min 0,0 UV-I 0 W/m 5,1 km/h (1 Bft)
19.07.2013 03:10 18,3 C 16,8 C 84 % 1023,4 hPa 0,0 l/m 0 min 0 min 0,0 UV-I 0 W/m 10,3 km/h (2 Bft)
19.07.2013 03:12 18,3 C 16,8 C 84 % 1023,4 hPa 0,0 l/m 0 min 0 min 0,0 UV-I 0 W/m 0,0 km/h (0 Bft)
19.07.2013 03:14 18,3 C 16,8 C 84 % 1023,4 hPa 0,0 l/m 0 min 0 min 0,0 UV-I 0 W/m 0,0 km/h (0 Bft)
19.07.2013 03:16 18,3 C 16,8 C 84 % 1023,4 hPa 0,0 l/m 0 min 0 min 0,0 UV-I 0 W/m 0,0 km/h (0 Bft)
19.07.2013 03:18 18,2 C 16,2 C 84 % 1023,4 hPa 0,0 l/m 0 min 0 min 0,0 UV-I 0 W/m 0,0 km/h (0 Bft)
19.07.2013 03:20 18,2 C 16,2 C 84 % 1023,4 hPa 0,0 l/m 0 min 0 min 0,0 UV-I 0 W/m 0,0 km/h (0 Bft)
19.07.2013 03:22 18,2 C 16,2 C 84 % 1023,4 hPa 0,0 l/m 0 min 0 min 0,0 UV-I 0 W/m 0,0 km/h (0 Bft)
19.07.2013 03:24 18,2 C 16,2 C 84 % 1023,4 hPa 0,0 l/m 0 min 0 min 0,0 UV-I 0 W/m 0,0 km/h (0 Bft)
19.07.2013 03:26 18,1 C 16,2 C 84 % 1023,4 hPa 0,0 l/m 0 min 0 min 0,0 UV-I 0 W/m 0,0 km/h (0 Bft)
19.07.2013 03:28 18,1 C 16,2 C 84 % 1023,4 hPa 0,0 l/m 0 min 0 min 0,0 UV-I 0 W/m 0,0 km/h (0 Bft)
19.07.2013 03:30 18,1 C 15,7 C 84 % 1023,3 hPa 0,0 l/m 0 min 0 min 0,0 UV-I 0 W/m 0,0 km/h (0 Bft)
19.07.2013 03:32 18,1 C 15,7 C 84 % 1023,4 hPa 0,0 l/m 0 min 0 min 0,0 UV-I 0 W/m 0,0 km/h (0 Bft)
19.07.2013 03:34 18,1 C 15,7 C 84 % 1023,3 hPa 0,0 l/m 0 min 0 min 0,0 UV-I 0 W/m 0,0 km/h (0 Bft)
19.07.2013 03:36 18,1 C 15,7 C 84 % 1023,3 hPa 0,0 l/m 0 min 0 min 0,0 UV-I 0 W/m 5,1 km/h (1 Bft)
19.07.2013 03:38 18,0 C 15,7 C 84 % 1023,3 hPa 0,0 l/m 0 min 0 min 0,0 UV-I 0 W/m 0,0 km/h (0 Bft)
19.07.2013 03:40 18,0 C 15,7 C 84 % 1023,3 hPa 0,0 l/m 0 min 0 min 0,0 UV-I 0 W/m 0,0 km/h (0 Bft)
19.07.2013 03:42 17,9 C 15,7 C 84 % 1023,3 hPa 0,0 l/m 0 min 0 min 0,0 UV-I 0 W/m 0,0 km/h (0 Bft)
19.07.2013 03:44 17,9 C 15,7 C 84 % 1023,2 hPa 0,0 l/m 0 min 0 min 0,0 UV-I 0 W/m 0,0 km/h (0 Bft)
19.07.2013 03:46 17,9 C 15,7 C 84 % 1023,3 hPa 0,0 l/m 0 min 0 min 0,0 UV-I 0 W/m 0,0 km/h (0 Bft)
19.07.2013 03:48 17,9 C 15,7 C 84 % 1023,3 hPa 0,0 l/m 0 min 0 min 0,0 UV-I 0 W/m 0,0 km/h (0 Bft)
19.07.2013 03:50 17,8 C 15,7 C 84 % 1023,3 hPa 0,0 l/m 0 min 0 min 0,0 UV-I 0 W/m 0,0 km/h (0 Bft)
19.07.2013 03:52 17,8 C 15,1 C 84 % 1023,3 hPa 0,0 l/m 0 min 0 min 0,0 UV-I 0 W/m 0,0 km/h (0 Bft)
19.07.2013 03:54 17,8 C 15,1 C 84 % 1023,3 hPa 0,0 l/m 0 min 0 min 0,0 UV-I 0 W/m 0,0 km/h (0 Bft)
19.07.2013 03:56 17,7 C 15,1 C 84 % 1023,3 hPa 0,0 l/m 0 min 0 min 0,0 UV-I 0 W/m 0,0 km/h (0 Bft)
19.07.2013 03:58 17,7 C 15,1 C 85 % 1023,4 hPa 0,0 l/m 0 min 0 min 0,0 UV-I 0 W/m 0,0 km/h (0 Bft)
19.07.2013 04:00 17,7 C 15,1 C 85 % 1023,3 hPa 0,0 l/m 0 min 0 min 0,0 UV-I 0 W/m 0,0 km/h (0 Bft)
19.07.2013 04:02 17,7 C 15,1 C 85 % 1023,3 hPa 0,0 l/m 0 min 0 min 0,0 UV-I 0 W/m 0,0 km/h (0 Bft)
19.07.2013 04:06 17,6 C 15,1 C 85 % 1023,3 hPa 0,0 l/m 0 min 0 min 0,0 UV-I 0 W/m 0,0 km/h (0 Bft)
19.07.2013 04:08 17,5 C 15,1 C 85 % 1023,2 hPa 0,0 l/m 0 min 0 min 0,0 UV-I 0 W/m 0,0 km/h (0 Bft)
19.07.2013 04:10 17,5 C 15,1 C 85 % 1023,3 hPa 0,0 l/m 0 min 0 min 0,0 UV-I 0 W/m 0,0 km/h (0 Bft)
19.07.2013 04:12 17,4 C 15,1 C 85 % 1023,2 hPa 0,0 l/m 0 min 0 min 0,0 UV-I 0 W/m 0,0 km/h (0 Bft)
19.07.2013 04:14 17,4 C 15,1 C 85 % 1023,2 hPa 0,0 l/m 0 min 0 min 0,0 UV-I 0 W/m 0,0 km/h (0 Bft)
19.07.2013 04:16 17,4 C 15,7 C 85 % 1023,3 hPa 0,0 l/m 0 min 0 min 0,0 UV-I 0 W/m 0,0 km/h (0 Bft)
19.07.2013 04:18 17,3 C 15,7 C 86 % 1023,3 hPa 0,0 l/m 0 min 0 min 0,0 UV-I 0 W/m 0,0 km/h (0 Bft)
19.07.2013 04:20 17,3 C 15,7 C 86 % 1023,3 hPa 0,0 l/m 0 min 0 min 0,0 UV-I 0 W/m 0,0 km/h (0 Bft)
19.07.2013 04:22 17,3 C 15,7 C 86 % 1023,2 hPa 0,0 l/m 0 min 0 min 0,0 UV-I 0 W/m 0,0 km/h (0 Bft)
19.07.2013 04:24 17,2 C 15,7 C 86 % 1023,3 hPa 0,0 l/m 0 min 0 min 0,0 UV-I 0 W/m 0,0 km/h (0 Bft)
19.07.2013 04:26 17,2 C 15,7 C 86 % 1023,3 hPa 0,0 l/m 0 min 0 min 0,0 UV-I 0 W/m 0,0 km/h (0 Bft)
19.07.2013 04:28 17,2 C 15,7 C 86 % 1023,3 hPa 0,0 l/m 0 min 0 min 0,0 UV-I 0 W/m 0,0 km/h (0 Bft)
19.07.2013 04:30 17,2 C 15,7 C 86 % 1023,3 hPa 0,0 l/m 0 min 0 min 0,0 UV-I 0 W/m 0,0 km/h (0 Bft)
19.07.2013 04:32 17,2 C 15,7 C 86 % 1023,4 hPa 0,0 l/m 0 min 0 min 0,0 UV-I 0 W/m 0,0 km/h (0 Bft)
19.07.2013 04:34 17,1 C 15,7 C 86 % 1023,4 hPa 0,0 l/m 0 min 0 min 0,0 UV-I 0 W/m 0,0 km/h (0 Bft)
19.07.2013 04:36 17,1 C 15,7 C 86 % 1023,4 hPa 0,0 l/m 0 min 0 min 0,0 UV-I 0 W/m 0,0 km/h (0 Bft)
19.07.2013 04:38 17,1 C 15,7 C 86 % 1023,4 hPa 0,0 l/m 0 min 0 min 0,0 UV-I 0 W/m 0,0 km/h (0 Bft)
19.07.2013 04:40 17,1 C 15,7 C 86 % 1023,4 hPa 0,0 l/m 0 min 0 min 0,0 UV-I 0 W/m 0,0 km/h (0 Bft)
19.07.2013 04:42 17,1 C 15,7 C 86 % 1023,4 hPa 0,0 l/m 0 min 0 min 0,0 UV-I 0 W/m 0,0 km/h (0 Bft)
19.07.2013 04:44 17,1 C 15,7 C 86 % 1023,4 hPa 0,0 l/m 0 min 0 min 0,0 UV-I 0 W/m 0,0 km/h (0 Bft)
19.07.2013 04:46 17,0 C 15,7 C 86 % 1023,3 hPa 0,0 l/m 0 min 0 min 0,0 UV-I 0 W/m 0,0 km/h (0 Bft)
19.07.2013 04:48 17,0 C 15,7 C 85 % 1023,3 hPa 0,0 l/m 0 min 0 min 0,0 UV-I 0 W/m 0,0 km/h (0 Bft)
19.07.2013 04:50 17,0 C 15,7 C 85 % 1023,3 hPa 0,0 l/m 0 min 0 min 0,0 UV-I 0 W/m 0,0 km/h (0 Bft)
19.07.2013 04:52 16,9 C 15,7 C 85 % 1023,3 hPa 0,0 l/m 0 min 0 min 0,0 UV-I 0 W/m 0,0 km/h (0 Bft)
19.07.2013 04:54 16,9 C 15,1 C 85 % 1023,3 hPa 0,0 l/m 0 min 0 min 0,0 UV-I 0 W/m 0,0 km/h (0 Bft)
19.07.2013 04:56 16,9 C 15,1 C 85 % 1023,3 hPa 0,0 l/m 0 min 0 min 0,0 UV-I 0 W/m 0,0 km/h (0 Bft)
19.07.2013 04:58 16,9 C 15,1 C 85 % 1023,2 hPa 0,0 l/m 0 min 0 min 0,0 UV-I 0 W/m 0,0 km/h (0 Bft)
19.07.2013 05:00 16,9 C 15,1 C 85 % 1023,2 hPa 0,0 l/m 0 min 0 min 0,0 UV-I 0 W/m 0,0 km/h (0 Bft)
19.07.2013 05:02 16,8 C 15,1 C 85 % 1023,3 hPa 0,0 l/m 0 min 0 min 0,0 UV-I 0 W/m 0,0 km/h (0 Bft)
19.07.2013 05:06 16,8 C 15,1 C 85 % 1023,2 hPa 0,0 l/m 0 min 0 min 0,0 UV-I 0 W/m 0,0 km/h (0 Bft)
19.07.2013 05:08 16,8 C 15,1 C 85 % 1023,2 hPa 0,0 l/m 0 min 0 min 0,0 UV-I 0 W/m 0,0 km/h (0 Bft)
19.07.2013 05:10 16,7 C 15,1 C 85 % 1023,2 hPa 0,0 l/m 0 min 0 min 0,0 UV-I 0 W/m 0,0 km/h (0 Bft)
19.07.2013 05:12 16,7 C 15,1 C 85 % 1023,2 hPa 0,0 l/m 0 min 0 min 0,0 UV-I 0 W/m 0,0 km/h (0 Bft)
19.07.2013 05:14 16,7 C 15,1 C 85 % 1023,2 hPa 0,0 l/m 0 min 0 min 0,0 UV-I 0 W/m 0,0 km/h (0 Bft)
19.07.2013 05:16 16,7 C 15,1 C 85 % 1023,2 hPa 0,0 l/m 0 min 0 min 0,0 UV-I 0 W/m 0,0 km/h (0 Bft)
19.07.2013 05:18 16,7 C 15,1 C 85 % 1023,2 hPa 0,0 l/m 0 min 0 min 0,0 UV-I 0 W/m 7,7 km/h (2 Bft)
19.07.2013 05:20 16,6 C 15,1 C 85 % 1023,1 hPa 0,0 l/m 0 min 0 min 0,0 UV-I 0 W/m 7,7 km/h (2 Bft)
19.07.2013 05:22 16,6 C 15,1 C 85 % 1023,2 hPa 0,0 l/m 0 min 0 min 0,0 UV-I 0 W/m 7,7 km/h (2 Bft)
19.07.2013 05:24 16,6 C 15,1 C 85 % 1023,1 hPa 0,0 l/m 0 min 0 min 0,0 UV-I 0 W/m 2,6 km/h (1 Bft)
19.07.2013 05:26 16,5 C 15,1 C 85 % 1023,1 hPa 0,0 l/m 0 min 0 min 0,0 UV-I 0 W/m 0,0 km/h (0 Bft)
19.07.2013 05:28 16,4 C 15,1 C 85 % 1023,2 hPa 0,0 l/m 0 min 0 min 0,0 UV-I 0 W/m 2,6 km/h (1 Bft)
19.07.2013 05:30 16,4 C 15,1 C 85 % 1023,2 hPa 0,0 l/m 0 min 0 min 0,0 UV-I 0 W/m 7,7 km/h (2 Bft)
19.07.2013 05:32 16,4 C 15,1 C 85 % 1023,2 hPa 0,0 l/m 0 min 0 min 0,0 UV-I 0 W/m 7,7 km/h (2 Bft)
19.07.2013 05:34 16,4 C 15,1 C 85 % 1023,3 hPa 0,0 l/m 0 min 0 min 0,0 UV-I 0 W/m 7,7 km/h (2 Bft)
19.07.2013 05:36 16,3 C 15,1 C 85 % 1023,2 hPa 0,0 l/m 0 min 0 min 0,0 UV-I 0 W/m 2,6 km/h (1 Bft)
19.07.2013 05:38 16,3 C 15,1 C 85 % 1023,2 hPa 0,0 l/m 0 min 0 min 0,0 UV-I 5 W/m 0,0 km/h (0 Bft)
19.07.2013 05:40 16,3 C 15,1 C 85 % 1023,2 hPa 0,0 l/m 0 min 0 min 0,0 UV-I 5 W/m 2,6 km/h (1 Bft)
19.07.2013 05:42 16,3 C 15,1 C 85 % 1023,3 hPa 0,0 l/m 0 min 0 min 0,0 UV-I 5 W/m 0,0 km/h (0 Bft)
19.07.2013 05:44 16,2 C 15,1 C 85 % 1023,2 hPa 0,0 l/m 0 min 0 min 0,0 UV-I 5 W/m 10,3 km/h (2 Bft)
19.07.2013 05:46 16,2 C 15,1 C 85 % 1023,2 hPa 0,0 l/m 0 min 0 min 0,0 UV-I 7 W/m 5,1 km/h (1 Bft)
19.07.2013 05:48 16,2 C 15,1 C 85 % 1023,2 hPa 0,0 l/m 0 min 0 min 0,0 UV-I 7 W/m 7,7 km/h (2 Bft)
19.07.2013 05:50 16,2 C 15,1 C 85 % 1023,3 hPa 0,0 l/m 0 min 0 min 0,0 UV-I 7 W/m 2,6 km/h (1 Bft)
19.07.2013 05:52 16,2 C 14,6 C 85 % 1023,3 hPa 0,0 l/m 0 min 0 min 0,0 UV-I 9 W/m 5,1 km/h (1 Bft)
19.07.2013 05:54 16,1 C 14,6 C 85 % 1023,3 hPa 0,0 l/m 0 min 0 min 0,0 UV-I 9 W/m 7,7 km/h (2 Bft)
19.07.2013 05:56 16,1 C 14,6 C 85 % 1023,3 hPa 0,0 l/m 0 min 0 min 0,0 UV-I 11 W/m 7,7 km/h (2 Bft)
19.07.2013 05:58 16,1 C 14,6 C 86 % 1023,3 hPa 0,0 l/m 0 min 0 min 0,0 UV-I 11 W/m 0,0 km/h (0 Bft)
19.07.2013 06:00 16,1 C 14,6 C 86 % 1023,3 hPa 0,0 l/m 0 min 0 min 0,0 UV-I 12 W/m 5,1 km/h (1 Bft)
19.07.2013 06:02 16,1 C 14,6 C 86 % 1023,3 hPa 0,0 l/m 0 min 0 min 0,0 UV-I 12 W/m 0,0 km/h (0 Bft)
19.07.2013 06:06 16,0 C 14,6 C 86 % 1023,3 hPa 0,0 l/m 0 min 0 min 0,0 UV-I 14 W/m 7,7 km/h (2 Bft)
19.07.2013 06:08 15,9 C 14,6 C 86 % 1023,3 hPa 0,0 l/m 0 min 0 min 0,0 UV-I 14 W/m 0,0 km/h (0 Bft)
19.07.2013 06:10 15,9 C 14,6 C 86 % 1023,3 hPa 0,0 l/m 0 min 0 min 0,0 UV-I 16 W/m 2,6 km/h (1 Bft)
19.07.2013 06:12 15,9 C 14,6 C 86 % 1023,3 hPa 0,0 l/m 0 min 0 min 0,0 UV-I 16 W/m 0,0 km/h (0 Bft)
19.07.2013 06:14 15,9 C 14,6 C 86 % 1023,3 hPa 0,0 l/m 0 min 0 min 0,0 UV-I 18 W/m 2,6 km/h (1 Bft)
19.07.2013 06:16 15,9 C 14,6 C 86 % 1023,4 hPa 0,0 l/m 0 min 0 min 0,0 UV-I 18 W/m 0,0 km/h (0 Bft)
19.07.2013 06:18 15,9 C 14,6 C 86 % 1023,4 hPa 0,0 l/m 0 min 0 min 0,0 UV-I 18 W/m 0,0 km/h (0 Bft)
19.07.2013 06:20 15,9 C 14,6 C 86 % 1023,4 hPa 0,0 l/m 0 min 0 min 0,0 UV-I 19 W/m 0,0 km/h (0 Bft)
19.07.2013 06:22 15,8 C 14,6 C 86 % 1023,4 hPa 0,0 l/m 0 min 0 min 0,0 UV-I 19 W/m 0,0 km/h (0 Bft)
19.07.2013 06:24 15,8 C 14,6 C 86 % 1023,4 hPa 0,0 l/m 0 min 0 min 0,0 UV-I 21 W/m 2,6 km/h (1 Bft)
19.07.2013 06:26 15,8 C 14,6 C 86 % 1023,4 hPa 0,0 l/m 0 min 0 min 0,0 UV-I 21 W/m 0,0 km/h (0 Bft)
19.07.2013 06:28 15,8 C 14,6 C 86 % 1023,4 hPa 0,0 l/m 0 min 0 min 0,0 UV-I 21 W/m 0,0 km/h (0 Bft)
19.07.2013 06:30 15,8 C 14,6 C 86 % 1023,4 hPa 0,0 l/m 0 min 0 min 0,0 UV-I 23 W/m 5,1 km/h (1 Bft)
19.07.2013 06:32 15,8 C 14,6 C 86 % 1023,4 hPa 0,0 l/m 0 min 0 min 0,0 UV-I 23 W/m 5,1 km/h (1 Bft)
19.07.2013 06:34 15,8 C 14,6 C 86 % 1023,4 hPa 0,0 l/m 0 min 0 min 0,0 UV-I 25 W/m 0,0 km/h (0 Bft)
19.07.2013 06:36 15,8 C 15,1 C 86 % 1023,4 hPa 0,0 l/m 0 min 0 min 0,0 UV-I 25 W/m 2,6 km/h (1 Bft)
19.07.2013 06:38 15,8 C 15,1 C 86 % 1023,4 hPa 0,0 l/m 0 min 0 min 0,0 UV-I 25 W/m 0,0 km/h (0 Bft)
19.07.2013 06:40 15,8 C 15,1 C 86 % 1023,4 hPa 0,0 l/m 0 min 0 min 0,0 UV-I 26 W/m 2,6 km/h (1 Bft)
19.07.2013 06:42 15,8 C 15,1 C 86 % 1023,3 hPa 0,0 l/m 0 min 0 min 0,0 UV-I 26 W/m 0,0 km/h (0 Bft)
19.07.2013 06:44 15,8 C 15,1 C 86 % 1023,4 hPa 0,0 l/m 0 min 0 min 0,0 UV-I 26 W/m 0,0 km/h (0 Bft)
19.07.2013 06:46 15,8 C 15,1 C 86 % 1023,3 hPa 0,0 l/m 0 min 0 min 0,0 UV-I 26 W/m 2,6 km/h (1 Bft)
19.07.2013 06:48 15,9 C 15,1 C 86 % 1023,3 hPa 0,0 l/m 0 min 0 min 0,0 UV-I 28 W/m 5,1 km/h (1 Bft)
19.07.2013 06:50 15,9 C 15,1 C 86 % 1023,4 hPa 0,0 l/m 0 min 0 min 0,0 UV-I 28 W/m 5,1 km/h (1 Bft)
19.07.2013 06:52 15,9 C 15,1 C 86 % 1023,4 hPa 0,0 l/m 0 min 0 min 0,0 UV-I 28 W/m 2,6 km/h (1 Bft)
19.07.2013 06:54 15,9 C 15,1 C 86 % 1023,4 hPa 0,0 l/m 0 min 0 min 0,0 UV-I 30 W/m 0,0 km/h (0 Bft)
19.07.2013 06:56 15,9 C 15,1 C 86 % 1023,4 hPa 0,0 l/m 0 min 0 min 0,0 UV-I 30 W/m 2,6 km/h (1 Bft)
19.07.2013 06:58 15,9 C 15,1 C 86 % 1023,3 hPa 0,0 l/m 0 min 0 min 0,0 UV-I 30 W/m 7,7 km/h (2 Bft)
19.07.2013 07:00 16,0 C 15,1 C 86 % 1023,4 hPa 0,0 l/m 0 min 0 min 0,0 UV-I 30 W/m 2,6 km/h (1 Bft)
19.07.2013 07:02 16,1 C 15,1 C 86 % 1023,3 hPa 0,0 l/m 0 min 0 min 0,0 UV-I 32 W/m 0,0 km/h (0 Bft)
19.07.2013 07:06 16,1 C 15,1 C 86 % 1023,3 hPa 0,0 l/m 0 min 0 min 0,0 UV-I 32 W/m 7,7 km/h (2 Bft)
19.07.2013 07:08 16,1 C 15,7 C 86 % 1023,4 hPa 0,0 l/m 0 min 0 min 0,0 UV-I 33 W/m 10,3 km/h (2 Bft)
19.07.2013 07:10 16,2 C 15,7 C 86 % 1023,3 hPa 0,0 l/m 0 min 0 min 0,0 UV-I 33 W/m 0,0 km/h (0 Bft)
19.07.2013 07:12 16,2 C 15,7 C 85 % 1023,3 hPa 0,0 l/m 0 min 0 min 0,0 UV-I 33 W/m 5,1 km/h (1 Bft)
19.07.2013 07:14 16,2 C 15,7 C 85 % 1023,4 hPa 0,0 l/m 0 min 0 min 0,0 UV-I 33 W/m 7,7 km/h (2 Bft)
19.07.2013 07:16 16,3 C 15,7 C 85 % 1023,3 hPa 0,0 l/m 0 min 0 min 0,0 UV-I 35 W/m 7,7 km/h (2 Bft)
19.07.2013 07:18 16,3 C 15,7 C 85 % 1023,3 hPa 0,0 l/m 0 min 0 min 0,0 UV-I 35 W/m 7,7 km/h (2 Bft)
19.07.2013 07:20 16,4 C 15,7 C 85 % 1023,4 hPa 0,0 l/m 0 min 0 min 0,0 UV-I 35 W/m 10,3 km/h (2 Bft)
19.07.2013 07:22 16,4 C 15,7 C 85 % 1023,4 hPa 0,0 l/m 0 min 0 min 0,0 UV-I 37 W/m 7,7 km/h (2 Bft)
19.07.2013 07:24 16,4 C 15,7 C 85 % 1023,4 hPa 0,0 l/m 0 min 0 min 0,0 UV-I 37 W/m 7,7 km/h (2 Bft)
19.07.2013 07:26 16,5 C 15,7 C 85 % 1023,4 hPa 0,0 l/m 0 min 0 min 0,0 UV-I 37 W/m 10,3 km/h (2 Bft)
19.07.2013 07:28 16,6 C 15,7 C 84 % 1023,5 hPa 0,0 l/m 0 min 0 min 0,0 UV-I 39 W/m 10,3 km/h (2 Bft)
19.07.2013 07:30 16,6 C 15,7 C 84 % 1023,5 hPa 0,0 l/m 0 min 0 min 0,0 UV-I 39 W/m 7,7 km/h (2 Bft)
19.07.2013 07:32 16,6 C 15,7 C 84 % 1023,5 hPa 0,0 l/m 0 min 0 min 0,0 UV-I 39 W/m 10,3 km/h (2 Bft)
19.07.2013 07:34 16,7 C 16,2 C 84 % 1023,5 hPa 0,0 l/m 0 min 0 min 0,0 UV-I 39 W/m 10,3 km/h (2 Bft)
19.07.2013 07:36 16,7 C 16,2 C 84 % 1023,5 hPa 0,0 l/m 0 min 0 min 0,0 UV-I 40 W/m 7,7 km/h (2 Bft)
19.07.2013 07:38 16,8 C 16,2 C 83 % 1023,5 hPa 0,0 l/m 0 min 0 min 0,0 UV-I 40 W/m 10,3 km/h (2 Bft)
19.07.2013 07:40 16,8 C 16,2 C 83 % 1023,5 hPa 0,0 l/m 0 min 0 min 0,0 UV-I 40 W/m 7,7 km/h (2 Bft)
19.07.2013 07:42 16,8 C 16,2 C 83 % 1023,5 hPa 0,0 l/m 0 min 0 min 0,0 UV-I 42 W/m 10,3 km/h (2 Bft)
19.07.2013 07:44 16,9 C 16,2 C 83 % 1023,6 hPa 0,0 l/m 0 min 0 min 0,0 UV-I 42 W/m 12,9 km/h (3 Bft)
19.07.2013 07:46 16,9 C 16,2 C 83 % 1023,6 hPa 0,0 l/m 0 min 0 min 0,0 UV-I 42 W/m 12,9 km/h (3 Bft)
19.07.2013 07:48 16,9 C 16,2 C 82 % 1023,6 hPa 0,0 l/m 0 min 0 min 0,0 UV-I 42 W/m 10,3 km/h (2 Bft)
19.07.2013 07:50 17,0 C 16,2 C 82 % 1023,6 hPa 0,0 l/m 0 min 0 min 0,0 UV-I 44 W/m 12,9 km/h (3 Bft)
19.07.2013 07:52 17,1 C 16,2 C 82 % 1023,6 hPa 0,0 l/m 0 min 0 min 0,0 UV-I 44 W/m 12,9 km/h (3 Bft)
19.07.2013 07:54 17,2 C 16,2 C 82 % 1023,6 hPa 0,0 l/m 0 min 0 min 0,0 UV-I 44 W/m 7,7 km/h (2 Bft)
19.07.2013 07:56 17,2 C 16,8 C 82 % 1023,6 hPa 0,0 l/m 0 min 0 min 0,0 UV-I 44 W/m 10,3 km/h (2 Bft)
19.07.2013 07:58 17,2 C 16,8 C 81 % 1023,6 hPa 0,0 l/m 0 min 0 min 0,0 UV-I 44 W/m 5,1 km/h (1 Bft)
19.07.2013 08:00 17,3 C 16,8 C 81 % 1023,6 hPa 0,0 l/m 0 min 0 min 0,0 UV-I 46 W/m 7,7 km/h (2 Bft)
19.07.2013 08:02 17,3 C 16,8 C 81 % 1023,6 hPa 0,0 l/m 0 min 0 min 0,0 UV-I 62 W/m 7,7 km/h (2 Bft)
19.07.2013 08:06 17,4 C 16,8 C 81 % 1023,7 hPa 0,0 l/m 2 min 0 min 0,0 UV-I 260 W/m 10,3 km/h (2 Bft)
19.07.2013 08:08 17,5 C 16,8 C 81 % 1023,6 hPa 0,0 l/m 2 min 0 min 0,0 UV-I 265 W/m 12,9 km/h (3 Bft)
19.07.2013 08:10 17,6 C 16,8 C 80 % 1023,6 hPa 0,0 l/m 2 min 0 min 0,0 UV-I 269 W/m 12,9 km/h (3 Bft)
19.07.2013 08:12 17,6 C 16,8 C 80 % 1023,6 hPa 0,0 l/m 2 min 0 min 0,0 UV-I 274 W/m 0,0 km/h (0 Bft)
19.07.2013 08:14 17,7 C 17,3 C 80 % 1023,6 hPa 0,0 l/m 2 min 0 min 0,0 UV-I 278 W/m 0,0 km/h (0 Bft)
19.07.2013 08:16 17,7 C 17,3 C 81 % 1023,7 hPa 0,0 l/m 2 min 0 min 0,0 UV-I 283 W/m 0,0 km/h (0 Bft)
19.07.2013 08:18 17,8 C 17,3 C 80 % 1023,7 hPa 0,0 l/m 2 min 0 min 0,0 UV-I 288 W/m 10,3 km/h (2 Bft)
19.07.2013 08:20 17,8 C 17,3 C 80 % 1023,7 hPa 0,0 l/m 2 min 0 min 0,0 UV-I 294 W/m 15,4 km/h (3 Bft)
19.07.2013 08:22 17,9 C 17,3 C 80 % 1023,6 hPa 0,0 l/m 2 min 0 min 0,0 UV-I 297 W/m 10,3 km/h (2 Bft)
19.07.2013 08:24 18,0 C 17,3 C 79 % 1023,7 hPa 0,0 l/m 2 min 0 min 0,0 UV-I 304 W/m 12,9 km/h (3 Bft)
19.07.2013 08:26 18,1 C 17,9 C 79 % 1023,7 hPa 0,0 l/m 2 min 0 min 0,0 UV-I 308 W/m 10,3 km/h (2 Bft)
19.07.2013 08:28 18,2 C 17,9 C 79 % 1023,8 hPa 0,0 l/m 2 min 0 min 0,0 UV-I 313 W/m 5,1 km/h (1 Bft)
19.07.2013 08:30 18,3 C 17,9 C 79 % 1023,7 hPa 0,0 l/m 2 min 0 min 0,0 UV-I 320 W/m 2,6 km/h (1 Bft)
19.07.2013 08:32 18,3 C 17,9 C 79 % 1023,7 hPa 0,0 l/m 2 min 0 min 0,0 UV-I 323 W/m 10,3 km/h (2 Bft)
19.07.2013 08:34 18,4 C 17,9 C 78 % 1023,8 hPa 0,0 l/m 2 min 0 min 0,0 UV-I 329 W/m 10,3 km/h (2 Bft)
19.07.2013 08:36 18,4 C 17,9 C 79 % 1023,8 hPa 0,0 l/m 2 min 0 min 0,0 UV-I 338 W/m 2,6 km/h (1 Bft)
19.07.2013 08:38 18,6 C 18,4 C 79 % 1023,7 hPa 0,0 l/m 2 min 0 min 0,0 UV-I 339 W/m 2,6 km/h (1 Bft)
19.07.2013 08:40 18,6 C 18,4 C 78 % 1023,7 hPa 0,0 l/m 2 min 0 min 0,0 UV-I 345 W/m 0,0 km/h (0 Bft)
19.07.2013 08:42 18,8 C 18,4 C 78 % 1023,7 hPa 0,0 l/m 2 min 0 min 0,5 UV-I 350 W/m 10,3 km/h (2 Bft)
19.07.2013 08:44 18,9 C 19,0 C 77 % 1023,7 hPa 0,0 l/m 2 min 0 min 0,5 UV-I 355 W/m 10,3 km/h (2 Bft)
19.07.2013 08:46 19,1 C 19,0 C 76 % 1023,7 hPa 0,0 l/m 2 min 0 min 0,5 UV-I 359 W/m 7,7 km/h (2 Bft)
19.07.2013 08:48 19,2 C 19,0 C 75 % 1023,7 hPa 0,0 l/m 2 min 0 min 0,6 UV-I 364 W/m 10,3 km/h (2 Bft)
19.07.2013 08:50 19,4 C 19,0 C 74 % 1023,8 hPa 0,0 l/m 2 min 0 min 0,6 UV-I 367 W/m 18,0 km/h (3 Bft)
19.07.2013 08:52 19,6 C 19,6 C 74 % 1023,7 hPa 0,0 l/m 2 min 0 min 0,6 UV-I 373 W/m 15,4 km/h (3 Bft)
19.07.2013 08:54 19,8 C 19,6 C 73 % 1023,8 hPa 0,0 l/m 2 min 0 min 0,6 UV-I 381 W/m 18,0 km/h (3 Bft)
19.07.2013 08:56 20,1 C 19,6 C 72 % 1023,8 hPa 0,0 l/m 2 min 0 min 0,7 UV-I 385 W/m 12,9 km/h (3 Bft)
19.07.2013 08:58 20,2 C 19,6 C 72 % 1023,7 hPa 0,0 l/m 2 min 0 min 0,7 UV-I 390 W/m 12,9 km/h (3 Bft)
19.07.2013 09:00 20,4 C 19,6 C 72 % 1023,8 hPa 0,0 l/m 2 min 0 min 0,7 UV-I 396 W/m 12,9 km/h (3 Bft)
19.07.2013 09:02 20,6 C 20,1 C 71 % 1023,7 hPa 0,0 l/m 2 min 0 min 0,8 UV-I 399 W/m 2,6 km/h (1 Bft)
19.07.2013 09:06 20,8 C 20,1 C 71 % 1023,7 hPa 0,0 l/m 2 min 0 min 0,8 UV-I 410 W/m 15,4 km/h (3 Bft)
19.07.2013 09:08 20,9 C 20,1 C 70 % 1023,7 hPa 0,0 l/m 2 min 0 min 0,8 UV-I 411 W/m 15,4 km/h (3 Bft)
19.07.2013 09:10 21,0 C 20,1 C 70 % 1023,9 hPa 0,0 l/m 2 min 0 min 0,9 UV-I 418 W/m 15,4 km/h (3 Bft)
19.07.2013 09:12 21,1 C 20,1 C 70 % 1023,8 hPa 0,0 l/m 2 min 0 min 0,9 UV-I 422 W/m 15,4 km/h (3 Bft)
19.07.2013 09:14 21,3 C 20,1 C 69 % 1023,7 hPa 0,0 l/m 2 min 0 min 0,9 UV-I 427 W/m 12,9 km/h (3 Bft)
19.07.2013 09:16 21,3 C 20,7 C 69 % 1023,8 hPa 0,0 l/m 2 min 0 min 1,0 UV-I 432 W/m 10,3 km/h (2 Bft)
19.07.2013 09:18 21,4 C 20,7 C 68 % 1023,7 hPa 0,0 l/m 2 min 0 min 1,0 UV-I 438 W/m 18,0 km/h (3 Bft)
19.07.2013 09:20 21,6 C 20,7 C 69 % 1023,8 hPa 0,0 l/m 2 min 0 min 1,0 UV-I 441 W/m 2,6 km/h (1 Bft)
19.07.2013 09:22 21,7 C 21,2 C 69 % 1023,8 hPa 0,0 l/m 2 min 0 min 1,1 UV-I 446 W/m 2,6 km/h (1 Bft)
19.07.2013 09:24 21,8 C 21,2 C 68 % 1023,7 hPa 0,0 l/m 2 min 0 min 1,1 UV-I 450 W/m 18,0 km/h (3 Bft)
19.07.2013 09:26 21,8 C 20,7 C 67 % 1023,7 hPa 0,0 l/m 2 min 0 min 1,1 UV-I 455 W/m 20,6 km/h (4 Bft)
19.07.2013 09:28 21,9 C 20,7 C 67 % 1023,8 hPa 0,0 l/m 2 min 0 min 1,2 UV-I 462 W/m 10,3 km/h (2 Bft)
19.07.2013 09:30 21,9 C 20,7 C 67 % 1023,8 hPa 0,0 l/m 2 min 0 min 1,2 UV-I 462 W/m 12,9 km/h (3 Bft)
19.07.2013 09:32 21,9 C 21,2 C 67 % 1023,8 hPa 0,0 l/m 2 min 0 min 1,2 UV-I 468 W/m 10,3 km/h (2 Bft)
19.07.2013 09:34 21,9 C 20,7 C 67 % 1023,8 hPa 0,0 l/m 2 min 0 min 1,3 UV-I 475 W/m 23,2 km/h (4 Bft)
19.07.2013 09:36 22,0 C 21,2 C 67 % 1023,7 hPa 0,0 l/m 2 min 0 min 1,3 UV-I 478 W/m 10,3 km/h (2 Bft)
19.07.2013 09:38 22,1 C 21,2 C 68 % 1023,7 hPa 0,0 l/m 2 min 0 min 1,3 UV-I 480 W/m 7,7 km/h (2 Bft)
19.07.2013 09:40 22,1 C 21,2 C 67 % 1023,7 hPa 0,0 l/m 2 min 0 min 1,3 UV-I 490 W/m 20,6 km/h (4 Bft)
19.07.2013 09:42 22,1 C 21,2 C 66 % 1023,6 hPa 0,0 l/m 2 min 0 min 1,4 UV-I 496 W/m 15,4 km/h (3 Bft)
19.07.2013 09:44 22,2 C 21,2 C 67 % 1023,7 hPa 0,0 l/m 2 min 0 min 1,4 UV-I 501 W/m 12,9 km/h (3 Bft)
19.07.2013 09:46 22,2 C 21,8 C 67 % 1023,8 hPa 0,0 l/m 2 min 0 min 1,5 UV-I 508 W/m 12,9 km/h (3 Bft)
19.07.2013 09:48 22,3 C 21,8 C 67 % 1023,7 hPa 0,0 l/m 2 min 0 min 1,5 UV-I 512 W/m 18,0 km/h (3 Bft)
19.07.2013 09:50 22,4 C 21,8 C 66 % 1023,7 hPa 0,0 l/m 2 min 0 min 1,6 UV-I 519 W/m 7,7 km/h (2 Bft)
19.07.2013 09:52 22,5 C 22,3 C 67 % 1023,7 hPa 0,0 l/m 2 min 0 min 1,6 UV-I 522 W/m 2,6 km/h (1 Bft)
19.07.2013 09:54 22,6 C 22,9 C 66 % 1023,6 hPa 0,0 l/m 2 min 0 min 1,7 UV-I 526 W/m 7,7 km/h (2 Bft)
19.07.2013 09:56 22,8 C 24,0 C 66 % 1023,6 hPa 0,0 l/m 2 min 0 min 1,7 UV-I 526 W/m 12,9 km/h (3 Bft)
19.07.2013 09:58 22,8 C 25,1 C 66 % 1023,7 hPa 0,0 l/m 2 min 0 min 1,7 UV-I 534 W/m 12,9 km/h (3 Bft)
19.07.2013 10:00 22,9 C 26,2 C 65 % 1023,7 hPa 0,0 l/m 2 min 0 min 1,8 UV-I 550 W/m 15,4 km/h (3 Bft)
19.07.2013 10:02 23,0 C 27,3 C 65 % 1023,7 hPa 0,0 l/m 2 min 0 min 1,8 UV-I 555 W/m 18,0 km/h (3 Bft)
19.07.2013 10:06 23,2 C 27,3 C 65 % 1023,7 hPa 0,0 l/m 2 min 0 min 1,9 UV-I 554 W/m 5,1 km/h (1 Bft)
19.07.2013 10:08 23,3 C 27,9 C 65 % 1023,6 hPa 0,0 l/m 2 min 0 min 1,9 UV-I 557 W/m 10,3 km/h (2 Bft)
19.07.2013 10:10 23,4 C 27,9 C 65 % 1023,6 hPa 0,0 l/m 2 min 0 min 2,0 UV-I 561 W/m 15,4 km/h (3 Bft)
19.07.2013 10:12 23,4 C 26,2 C 63 % 1023,6 hPa 0,0 l/m 2 min 0 min 2,0 UV-I 568 W/m 30,9 km/h (5 Bft)
19.07.2013 10:14 23,4 C 26,8 C 64 % 1023,6 hPa 0,0 l/m 2 min 0 min 2,0 UV-I 570 W/m 7,7 km/h (2 Bft)
19.07.2013 10:16 23,5 C 26,8 C 63 % 1023,7 hPa 0,0 l/m 2 min 0 min 2,1 UV-I 570 W/m 18,0 km/h (3 Bft)
19.07.2013 10:18 23,5 C 26,2 C 63 % 1023,7 hPa 0,0 l/m 2 min 0 min 2,1 UV-I 577 W/m 20,6 km/h (4 Bft)
19.07.2013 10:20 23,6 C 26,2 C 63 % 1023,7 hPa 0,0 l/m 2 min 0 min 2,2 UV-I 580 W/m 12,9 km/h (3 Bft)
19.07.2013 10:22 23,6 C 26,8 C 64 % 1023,6 hPa 0,0 l/m 2 min 0 min 2,2 UV-I 585 W/m 18,0 km/h (3 Bft)
19.07.2013 10:24 23,7 C 26,8 C 63 % 1023,7 hPa 0,0 l/m 2 min 0 min 2,2 UV-I 592 W/m 12,9 km/h (3 Bft)
19.07.2013 10:26 23,8 C 26,2 C 63 % 1023,7 hPa 0,0 l/m 2 min 0 min 2,3 UV-I 596 W/m 10,3 km/h (2 Bft)
19.07.2013 10:28 23,9 C 26,8 C 62 % 1023,7 hPa 0,0 l/m 2 min 0 min 2,3 UV-I 599 W/m 15,4 km/h (3 Bft)
19.07.2013 10:30 24,0 C 27,3 C 62 % 1023,7 hPa 0,0 l/m 2 min 0 min 2,4 UV-I 606 W/m 7,7 km/h (2 Bft)
19.07.2013 10:32 24,2 C 27,9 C 62 % 1023,7 hPa 0,0 l/m 2 min 0 min 2,4 UV-I 610 W/m 7,7 km/h (2 Bft)
19.07.2013 10:34 24,2 C 27,3 C 61 % 1023,7 hPa 0,0 l/m 2 min 0 min 2,5 UV-I 610 W/m 15,4 km/h (3 Bft)
19.07.2013 10:36 24,3 C 27,9 C 61 % 1023,7 hPa 0,0 l/m 2 min 0 min 2,5 UV-I 612 W/m 10,3 km/h (2 Bft)
19.07.2013 10:38 24,4 C 28,4 C 61 % 1023,7 hPa 0,0 l/m 2 min 0 min 2,5 UV-I 622 W/m 10,3 km/h (2 Bft)
19.07.2013 10:40 24,6 C 28,4 C 61 % 1023,7 hPa 0,0 l/m 2 min 0 min 2,6 UV-I 626 W/m 10,3 km/h (2 Bft)
19.07.2013 10:42 24,6 C 29,0 C 61 % 1023,7 hPa 0,0 l/m 2 min 0 min 2,7 UV-I 628 W/m 10,3 km/h (2 Bft)
19.07.2013 10:44 24,8 C 30,1 C 60 % 1023,7 hPa 0,0 l/m 2 min 0 min 2,7 UV-I 631 W/m 10,3 km/h (2 Bft)
19.07.2013 10:46 24,9 C 29,6 C 60 % 1023,7 hPa 0,0 l/m 2 min 0 min 2,7 UV-I 631 W/m 12,9 km/h (3 Bft)
19.07.2013 10:48 24,9 C 28,4 C 59 % 1023,7 hPa 0,0 l/m 2 min 0 min 2,7 UV-I 638 W/m 18,0 km/h (3 Bft)
19.07.2013 10:50 24,9 C 27,9 C 59 % 1023,7 hPa 0,0 l/m 2 min 0 min 2,8 UV-I 640 W/m 18,0 km/h (3 Bft)
19.07.2013 10:52 24,9 C 28,4 C 59 % 1023,7 hPa 0,0 l/m 2 min 0 min 2,8 UV-I 643 W/m 20,6 km/h (4 Bft)
19.07.2013 10:54 24,9 C 27,9 C 59 % 1023,7 hPa 0,0 l/m 2 min 0 min 2,9 UV-I 649 W/m 15,4 km/h (3 Bft)
19.07.2013 10:56 24,9 C 28,4 C 59 % 1023,7 hPa 0,0 l/m 2 min 0 min 2,9 UV-I 654 W/m 12,9 km/h (3 Bft)
19.07.2013 10:58 24,9 C 28,4 C 59 % 1023,6 hPa 0,0 l/m 2 min 0 min 2,9 UV-I 656 W/m 15,4 km/h (3 Bft)
19.07.2013 11:00 24,9 C 28,4 C 59 % 1023,7 hPa 0,0 l/m 2 min 0 min 3,0 UV-I 657 W/m 15,4 km/h (3 Bft)
19.07.2013 11:02 25,1 C 28,4 C 59 % 1023,7 hPa 0,0 l/m 2 min 0 min 3,0 UV-I 664 W/m 25,7 km/h (4 Bft)
19.07.2013 11:06 24,9 C 27,3 C 58 % 1023,8 hPa 0,0 l/m 2 min 0 min 3,1 UV-I 673 W/m 25,7 km/h (4 Bft)
19.07.2013 11:08 24,9 C 27,9 C 59 % 1023,7 hPa 0,0 l/m 2 min 0 min 3,1 UV-I 668 W/m 15,4 km/h (3 Bft)
19.07.2013 11:10 24,9 C 29,0 C 59 % 1023,7 hPa 0,0 l/m 2 min 0 min 3,2 UV-I 677 W/m 10,3 km/h (2 Bft)
19.07.2013 11:12 25,0 C 29,0 C 58 % 1023,7 hPa 0,0 l/m 2 min 0 min 3,2 UV-I 679 W/m 12,9 km/h (3 Bft)
19.07.2013 11:14 25,1 C 29,0 C 58 % 1023,7 hPa 0,0 l/m 2 min 0 min 3,2 UV-I 684 W/m 15,4 km/h (3 Bft)
19.07.2013 11:16 25,1 C 28,4 C 58 % 1023,7 hPa 0,0 l/m 2 min 0 min 3,2 UV-I 686 W/m 20,6 km/h (4 Bft)
19.07.2013 11:18 25,2 C 28,4 C 58 % 1023,7 hPa 0,0 l/m 2 min 0 min 3,3 UV-I 684 W/m 12,9 km/h (3 Bft)
19.07.2013 11:20 25,2 C 28,4 C 58 % 1023,6 hPa 0,0 l/m 2 min 0 min 3,4 UV-I 691 W/m 10,3 km/h (2 Bft)
19.07.2013 11:22 25,2 C 29,6 C 58 % 1023,6 hPa 0,0 l/m 2 min 0 min 3,4 UV-I 691 W/m 18,0 km/h (3 Bft)
19.07.2013 11:24 25,3 C 29,0 C 58 % 1023,7 hPa 0,0 l/m 2 min 0 min 3,4 UV-I 696 W/m 12,9 km/h (3 Bft)
19.07.2013 11:26 25,4 C 29,6 C 58 % 1023,6 hPa 0,0 l/m 2 min 0 min 3,5 UV-I 703 W/m 10,3 km/h (2 Bft)
19.07.2013 11:28 25,6 C 29,0 C 58 % 1023,6 hPa 0,0 l/m 2 min 0 min 3,5 UV-I 705 W/m 15,4 km/h (3 Bft)
19.07.2013 11:30 25,7 C 28,4 C 57 % 1023,6 hPa 0,0 l/m 2 min 0 min 3,6 UV-I 710 W/m 10,3 km/h (2 Bft)
19.07.2013 11:32 25,7 C 26,8 C 57 % 1023,7 hPa 0,0 l/m 2 min 0 min 3,6 UV-I 712 W/m 30,9 km/h (5 Bft)
19.07.2013 11:34 25,6 C 25,7 C 57 % 1023,6 hPa 0,0 l/m 2 min 0 min 3,6 UV-I 712 W/m 28,3 km/h (4 Bft)
19.07.2013 11:36 25,4 C 25,7 C 58 % 1023,6 hPa 0,0 l/m 2 min 0 min 3,6 UV-I 721 W/m 18,0 km/h (3 Bft)
19.07.2013 11:38 25,4 C 26,2 C 58 % 1023,7 hPa 0,0 l/m 2 min 0 min 3,7 UV-I 722 W/m 23,2 km/h (4 Bft)
19.07.2013 11:40 25,4 C 26,8 C 58 % 1023,7 hPa 0,0 l/m 2 min 0 min 3,8 UV-I 726 W/m 20,6 km/h (4 Bft)
19.07.2013 11:42 25,4 C 27,9 C 58 % 1023,7 hPa 0,0 l/m 2 min 0 min 3,8 UV-I 728 W/m 15,4 km/h (3 Bft)
19.07.2013 11:44 25,5 C 27,9 C 57 % 1023,7 hPa 0,0 l/m 2 min 0 min 3,8 UV-I 728 W/m 28,3 km/h (4 Bft)
19.07.2013 11:46 25,5 C 29,0 C 58 % 1023,9 hPa 0,0 l/m 2 min 0 min 3,9 UV-I 737 W/m 10,3 km/h (2 Bft)
19.07.2013 11:48 25,6 C 29,6 C 58 % 1023,8 hPa 0,0 l/m 2 min 0 min 3,9 UV-I 735 W/m 12,9 km/h (3 Bft)
19.07.2013 11:50 25,6 C 30,1 C 57 % 1023,7 hPa 0,0 l/m 2 min 0 min 3,9 UV-I 738 W/m 10,3 km/h (2 Bft)
19.07.2013 11:52 25,7 C 30,7 C 58 % 1023,7 hPa 0,0 l/m 2 min 0 min 4,0 UV-I 740 W/m 12,9 km/h (3 Bft)
19.07.2013 11:54 25,8 C 30,7 C 57 % 1023,7 hPa 0,0 l/m 2 min 0 min 4,0 UV-I 747 W/m 23,2 km/h (4 Bft)
19.07.2013 11:56 25,9 C 30,1 C 56 % 1023,7 hPa 0,0 l/m 2 min 0 min 4,1 UV-I 751 W/m 20,6 km/h (4 Bft)
19.07.2013 11:58 26,0 C 31,2 C 57 % 1023,7 hPa 0,0 l/m 2 min 0 min 4,1 UV-I 754 W/m 10,3 km/h (2 Bft)
19.07.2013 12:00 26,1 C 30,7 C 56 % 1023,6 hPa 0,0 l/m 2 min 0 min 4,1 UV-I 751 W/m 15,4 km/h (3 Bft)
19.07.2013 12:02 26,2 C 31,2 C 58 % 1023,7 hPa 0,0 l/m 2 min 0 min 4,1 UV-I 754 W/m 12,9 km/h (3 Bft)
19.07.2013 12:06 26,3 C 31,2 C 57 % 1023,7 hPa 0,0 l/m 2 min 0 min 4,3 UV-I 765 W/m 20,6 km/h (4 Bft)
19.07.2013 12:08 26,4 C 31,2 C 56 % 1023,6 hPa 0,0 l/m 2 min 0 min 4,3 UV-I 765 W/m 7,7 km/h (2 Bft)
19.07.2013 12:10 26,5 C 30,7 C 55 % 1023,5 hPa 0,0 l/m 2 min 0 min 4,2 UV-I 752 W/m 25,7 km/h (4 Bft)
19.07.2013 12:12 26,6 C 30,7 C 56 % 1023,7 hPa 0,0 l/m 2 min 0 min 4,3 UV-I 765 W/m 23,2 km/h (4 Bft)
19.07.2013 12:14 26,6 C 30,1 C 55 % 1023,6 hPa 0,0 l/m 2 min 0 min 4,3 UV-I 768 W/m 18,0 km/h (3 Bft)
19.07.2013 12:16 26,5 C 30,1 C 56 % 1023,6 hPa 0,0 l/m 2 min 0 min 4,3 UV-I 768 W/m 12,9 km/h (3 Bft)
19.07.2013 12:18 26,5 C 29,6 C 56 % 1023,5 hPa 0,0 l/m 2 min 0 min 4,4 UV-I 775 W/m 10,3 km/h (2 Bft)
19.07.2013 12:20 26,5 C 31,2 C 56 % 1023,5 hPa 0,0 l/m 2 min 0 min 4,3 UV-I 765 W/m 12,9 km/h (3 Bft)
19.07.2013 12:22 26,5 C 31,2 C 55 % 1023,5 hPa 0,0 l/m 2 min 0 min 4,3 UV-I 768 W/m 12,9 km/h (3 Bft)
19.07.2013 12:24 26,6 C 31,2 C 56 % 1023,5 hPa 0,0 l/m 2 min 0 min 4,4 UV-I 766 W/m 10,3 km/h (2 Bft)
19.07.2013 12:26 26,6 C 30,1 C 57 % 1023,6 hPa 0,0 l/m 2 min 0 min 4,5 UV-I 775 W/m 18,0 km/h (3 Bft)
19.07.2013 12:28 26,6 C 30,7 C 56 % 1023,5 hPa 0,0 l/m 2 min 0 min 4,4 UV-I 773 W/m 12,9 km/h (3 Bft)
19.07.2013 12:30 26,5 C 29,6 C 55 % 1023,4 hPa 0,0 l/m 2 min 0 min 4,5 UV-I 793 W/m 20,6 km/h (4 Bft)
19.07.2013 12:32 26,4 C 30,1 C 55 % 1023,4 hPa 0,0 l/m 2 min 0 min 4,5 UV-I 788 W/m 18,0 km/h (3 Bft)
19.07.2013 12:34 26,5 C 30,7 C 56 % 1023,5 hPa 0,0 l/m 2 min 0 min 4,5 UV-I 786 W/m 10,3 km/h (2 Bft)
19.07.2013 12:36 26,6 C 30,7 C 56 % 1023,5 hPa 0,0 l/m 2 min 0 min 4,5 UV-I 789 W/m 15,4 km/h (3 Bft)
19.07.2013 12:38 26,6 C 29,0 C 55 % 1023,4 hPa 0,0 l/m 2 min 0 min 4,5 UV-I 786 W/m 23,2 km/h (4 Bft)
19.07.2013 12:40 26,4 C 29,6 C 56 % 1023,4 hPa 0,0 l/m 2 min 0 min 4,6 UV-I 791 W/m 25,7 km/h (4 Bft)
19.07.2013 12:42 26,5 C 29,6 C 56 % 1023,4 hPa 0,0 l/m 2 min 0 min 4,5 UV-I 786 W/m 15,4 km/h (3 Bft)
19.07.2013 12:44 26,6 C 29,6 C 57 % 1023,4 hPa 0,0 l/m 2 min 0 min 4,5 UV-I 791 W/m 18,0 km/h (3 Bft)
19.07.2013 12:46 26,7 C 29,6 C 56 % 1023,4 hPa 0,0 l/m 2 min 0 min 4,6 UV-I 796 W/m 12,9 km/h (3 Bft)
19.07.2013 12:48 26,7 C 29,0 C 55 % 1023,3 hPa 0,0 l/m 2 min 0 min 4,6 UV-I 796 W/m 25,7 km/h (4 Bft)
19.07.2013 12:50 26,7 C 27,9 C 55 % 1023,2 hPa 0,0 l/m 2 min 0 min 4,6 UV-I 788 W/m 28,3 km/h (4 Bft)
19.07.2013 12:52 26,6 C 27,9 C 55 % 1023,2 hPa 0,0 l/m 2 min 0 min 4,7 UV-I 819 W/m 28,3 km/h (4 Bft)
19.07.2013 12:54 26,6 C 28,4 C 56 % 1023,2 hPa 0,0 l/m 2 min 0 min 4,6 UV-I 803 W/m 18,0 km/h (3 Bft)
19.07.2013 12:56 26,6 C 27,3 C 55 % 1023,2 hPa 0,0 l/m 2 min 0 min 4,7 UV-I 803 W/m 30,9 km/h (5 Bft)
19.07.2013 12:58 26,5 C 27,3 C 56 % 1023,2 hPa 0,0 l/m 2 min 0 min 4,5 UV-I 800 W/m 18,0 km/h (3 Bft)
19.07.2013 13:00 26,5 C 27,3 C 55 % 1023,3 hPa 0,0 l/m 2 min 0 min 4,1 UV-I 800 W/m 23,2 km/h (4 Bft)
19.07.2013 13:02 26,5 C 27,3 C 55 % 1023,2 hPa 0,0 l/m 2 min 0 min 3,9 UV-I 803 W/m 18,0 km/h (3 Bft)
19.07.2013 13:06 26,6 C 26,8 C 55 % 1023,2 hPa 0,0 l/m 2 min 0 min 3,0 UV-I 816 W/m 25,7 km/h (4 Bft)
19.07.2013 13:08 26,6 C 27,3 C 55 % 1023,1 hPa 0,0 l/m 2 min 0 min 2,6 UV-I 826 W/m 23,2 km/h (4 Bft)
19.07.2013 13:10 26,7 C 27,9 C 56 % 1023,2 hPa 0,0 l/m 2 min 0 min 2,4 UV-I 831 W/m 28,3 km/h (4 Bft)
19.07.2013 13:12 26,7 C 27,9 C 56 % 1023,1 hPa 0,0 l/m 2 min 0 min 2,3 UV-I 831 W/m 12,9 km/h (3 Bft)
19.07.2013 13:14 26,7 C 27,3 C 55 % 1023,1 hPa 0,0 l/m 0 min 0 min 2,3 UV-I 227 W/m 25,7 km/h (4 Bft)
19.07.2013 13:16 26,6 C 27,3 C 55 % 1023,1 hPa 0,0 l/m 2 min 0 min 2,3 UV-I 840 W/m 23,2 km/h (4 Bft)
19.07.2013 13:18 26,6 C 27,9 C 56 % 1023,1 hPa 0,0 l/m 2 min 0 min 2,3 UV-I 886 W/m 20,6 km/h (4 Bft)
19.07.2013 13:20 26,6 C 27,9 C 57 % 1023,1 hPa 0,0 l/m 2 min 0 min 2,4 UV-I 888 W/m 15,4 km/h (3 Bft)
19.07.2013 13:22 26,7 C 27,9 C 56 % 1023,2 hPa 0,0 l/m 2 min 0 min 2,3 UV-I 896 W/m 18,0 km/h (3 Bft)
19.07.2013 13:24 26,8 C 27,9 C 57 % 1023,1 hPa 0,0 l/m 2 min 0 min 2,4 UV-I 918 W/m 12,9 km/h (3 Bft)
19.07.2013 13:26 26,8 C 27,9 C 56 % 1023,0 hPa 0,0 l/m 2 min 0 min 2,4 UV-I 918 W/m 23,2 km/h (4 Bft)
19.07.2013 13:28 26,9 C 27,3 C 56 % 1023,0 hPa 0,0 l/m 0 min 0 min 2,3 UV-I 272 W/m 25,7 km/h (4 Bft)
19.07.2013 13:30 26,8 C 26,2 C 55 % 1023,0 hPa 0,0 l/m 0 min 0 min 2,4 UV-I 272 W/m 25,7 km/h (4 Bft)
19.07.2013 13:32 26,7 C 26,2 C 56 % 1023,0 hPa 0,0 l/m 0 min 0 min 2,2 UV-I 185 W/m 23,2 km/h (4 Bft)
19.07.2013 13:34 26,6 C 26,2 C 56 % 1023,0 hPa 0,0 l/m 0 min 0 min 2,3 UV-I 174 W/m 12,9 km/h (3 Bft)
19.07.2013 13:36 26,7 C 27,3 C 57 % 1023,0 hPa 0,0 l/m 2 min 0 min 2,5 UV-I 905 W/m 7,7 km/h (2 Bft)
19.07.2013 13:38 26,8 C 27,3 C 56 % 1023,0 hPa 0,0 l/m 2 min 0 min 2,5 UV-I 911 W/m 12,9 km/h (3 Bft)
19.07.2013 13:40 26,9 C 27,9 C 56 % 1023,0 hPa 0,0 l/m 2 min 0 min 2,5 UV-I 914 W/m 15,4 km/h (3 Bft)
19.07.2013 13:42 27,0 C 27,9 C 56 % 1023,0 hPa 0,0 l/m 2 min 0 min 2,7 UV-I 914 W/m 15,4 km/h (3 Bft)
19.07.2013 13:44 27,1 C 27,9 C 56 % 1023,0 hPa 0,0 l/m 2 min 0 min 2,7 UV-I 946 W/m 18,0 km/h (3 Bft)
19.07.2013 13:46 27,1 C 27,3 C 56 % 1023,0 hPa 0,0 l/m 2 min 0 min 2,6 UV-I 946 W/m 33,5 km/h (5 Bft)
19.07.2013 13:48 27,1 C 26,8 C 56 % 1023,0 hPa 0,0 l/m 2 min 0 min 2,2 UV-I 946 W/m 20,6 km/h (4 Bft)
19.07.2013 13:50 26,9 C 26,2 C 56 % 1022,9 hPa 0,0 l/m 0 min 0 min 2,2 UV-I 185 W/m 25,7 km/h (4 Bft)
19.07.2013 13:52 26,7 C 25,7 C 56 % 1022,9 hPa 0,0 l/m 0 min 0 min 2,3 UV-I 172 W/m 15,4 km/h (3 Bft)
19.07.2013 13:54 26,6 C 26,2 C 57 % 1022,9 hPa 0,0 l/m 2 min 0 min 3,9 UV-I 886 W/m 10,3 km/h (2 Bft)
19.07.2013 13:56 26,7 C 27,3 C 57 % 1022,9 hPa 0,0 l/m 2 min 0 min 4,3 UV-I 881 W/m 10,3 km/h (2 Bft)
19.07.2013 13:58 26,8 C 27,9 C 57 % 1022,8 hPa 0,0 l/m 2 min 0 min 4,8 UV-I 882 W/m 5,1 km/h (1 Bft)
19.07.2013 14:00 26,9 C 28,4 C 57 % 1022,8 hPa 0,0 l/m 2 min 0 min 5,0 UV-I 898 W/m 12,9 km/h (3 Bft)
19.07.2013 14:02 27,1 C 29,0 C 57 % 1022,8 hPa 0,0 l/m 2 min 0 min 4,9 UV-I 886 W/m 18,0 km/h (3 Bft)
19.07.2013 14:06 27,4 C 29,6 C 55 % 1022,7 hPa 0,0 l/m 2 min 0 min 5,1 UV-I 875 W/m 20,6 km/h (4 Bft)
19.07.2013 14:08 27,6 C 31,2 C 55 % 1022,8 hPa 0,0 l/m 2 min 0 min 5,0 UV-I 884 W/m 12,9 km/h (3 Bft)
19.07.2013 14:10 27,7 C 31,2 C 53 % 1022,7 hPa 0,0 l/m 2 min 0 min 4,9 UV-I 891 W/m 10,3 km/h (2 Bft)
19.07.2013 14:12 27,8 C 31,8 C 55 % 1022,7 hPa 0,0 l/m 2 min 0 min 2,8 UV-I 919 W/m 15,4 km/h (3 Bft)
19.07.2013 14:14 27,9 C 30,1 C 54 % 1022,7 hPa 0,0 l/m 2 min 0 min 2,8 UV-I 919 W/m 15,4 km/h (3 Bft)
19.07.2013 14:16 27,9 C 30,1 C 54 % 1022,7 hPa 0,0 l/m 0 min 0 min 2,7 UV-I 260 W/m 18,0 km/h (3 Bft)
19.07.2013 14:18 28,0 C 30,1 C 54 % 1022,7 hPa 0,0 l/m 0 min 0 min 5,1 UV-I 260 W/m 2,6 km/h (1 Bft)
19.07.2013 14:20 28,1 C 29,6 C 54 % 1022,7 hPa 0,0 l/m 2 min 0 min 5,0 UV-I 902 W/m 15,4 km/h (3 Bft)
19.07.2013 14:22 28,1 C 29,0 C 53 % 1022,7 hPa 0,0 l/m 2 min 0 min 3,1 UV-I 939 W/m 25,7 km/h (4 Bft)
19.07.2013 14:24 28,0 C 28,4 C 53 % 1022,7 hPa 0,0 l/m 2 min 0 min 4,0 UV-I 561 W/m 18,0 km/h (3 Bft)
19.07.2013 14:26 27,9 C 27,9 C 53 % 1022,6 hPa 0,0 l/m 0 min 0 min 2,3 UV-I 225 W/m 12,9 km/h (3 Bft)
19.07.2013 14:28 27,8 C 27,3 C 54 % 1022,7 hPa 0,0 l/m 0 min 0 min 2,2 UV-I 197 W/m 25,7 km/h (4 Bft)
19.07.2013 14:30 27,6 C 26,8 C 54 % 1022,7 hPa 0,0 l/m 0 min 0 min 2,3 UV-I 200 W/m 23,2 km/h (4 Bft)
19.07.2013 14:32 27,3 C 26,2 C 54 % 1022,8 hPa 0,0 l/m 2 min 0 min 4,6 UV-I 891 W/m 20,6 km/h (4 Bft)
19.07.2013 14:34 27,3 C 27,3 C 55 % 1022,7 hPa 0,0 l/m 2 min 0 min 4,5 UV-I 816 W/m 18,0 km/h (3 Bft)
19.07.2013 14:36 27,4 C 27,9 C 55 % 1022,7 hPa 0,0 l/m 2 min 0 min 4,7 UV-I 888 W/m 12,9 km/h (3 Bft)
19.07.2013 14:38 27,6 C 28,4 C 55 % 1022,7 hPa 0,0 l/m 2 min 0 min 4,5 UV-I 874 W/m 20,6 km/h (4 Bft)
19.07.2013 14:40 27,5 C 27,3 C 52 % 1022,7 hPa 0,0 l/m 2 min 0 min 2,5 UV-I 874 W/m 28,3 km/h (4 Bft)
19.07.2013 14:42 27,4 C 27,3 C 53 % 1022,7 hPa 0,0 l/m 2 min 0 min 4,7 UV-I 865 W/m 15,4 km/h (3 Bft)
19.07.2013 14:44 27,5 C 27,9 C 54 % 1022,7 hPa 0,0 l/m 2 min 0 min 4,8 UV-I 891 W/m 18,0 km/h (3 Bft)
19.07.2013 14:46 27,6 C 28,4 C 54 % 1022,7 hPa 0,0 l/m 2 min 0 min 4,5 UV-I 911 W/m 10,3 km/h (2 Bft)
19.07.2013 14:48 27,7 C 27,9 C 53 % 1022,7 hPa 0,0 l/m 2 min 0 min 4,3 UV-I 911 W/m 23,2 km/h (4 Bft)
19.07.2013 14:50 27,7 C 27,3 C 54 % 1022,7 hPa 0,0 l/m 0 min 0 min 2,3 UV-I 294 W/m 18,0 km/h (3 Bft)
19.07.2013 14:52 27,6 C 27,9 C 54 % 1022,6 hPa 0,0 l/m 2 min 0 min 4,5 UV-I 944 W/m 15,4 km/h (3 Bft)
19.07.2013 14:54 27,7 C 28,4 C 54 % 1022,7 hPa 0,0 l/m 2 min 0 min 3,6 UV-I 933 W/m 12,9 km/h (3 Bft)
19.07.2013 14:56 27,7 C 27,9 C 54 % 1022,6 hPa 0,0 l/m 2 min 0 min 2,5 UV-I 933 W/m 25,7 km/h (4 Bft)
19.07.2013 14:58 27,7 C 27,3 C 53 % 1022,6 hPa 0,0 l/m 2 min 0 min 2,2 UV-I 933 W/m 30,9 km/h (5 Bft)
19.07.2013 15:00 27,5 C 26,8 C 53 % 1022,6 hPa 0,0 l/m 0 min 0 min 2,1 UV-I 206 W/m 12,9 km/h (3 Bft)
19.07.2013 15:02 27,4 C 26,8 C 53 % 1022,6 hPa 0,0 l/m 0 min 0 min 2,2 UV-I 207 W/m 10,3 km/h (2 Bft)
19.07.2013 15:06 27,3 C 27,3 C 54 % 1022,6 hPa 0,0 l/m 2 min 0 min 2,3 UV-I 872 W/m 18,0 km/h (3 Bft)
19.07.2013 15:08 27,3 C 27,3 C 54 % 1022,6 hPa 0,0 l/m 0 min 0 min 2,2 UV-I 227 W/m 15,4 km/h (3 Bft)
19.07.2013 15:10 27,3 C 27,3 C 54 % 1022,5 hPa 0,0 l/m 2 min 0 min 4,2 UV-I 902 W/m 18,0 km/h (3 Bft)
19.07.2013 15:12 27,3 C 27,3 C 54 % 1022,5 hPa 0,0 l/m 2 min 0 min 4,4 UV-I 902 W/m 23,2 km/h (4 Bft)
19.07.2013 15:14 27,3 C 27,3 C 53 % 1022,5 hPa 0,0 l/m 2 min 0 min 4,6 UV-I 902 W/m 18,0 km/h (3 Bft)
19.07.2013 15:16 27,4 C 27,9 C 54 % 1022,5 hPa 0,0 l/m 2 min 0 min 4,5 UV-I 904 W/m 7,7 km/h (2 Bft)
19.07.2013 15:18 27,6 C 27,9 C 54 % 1022,5 hPa 0,0 l/m 2 min 0 min 4,5 UV-I 919 W/m 10,3 km/h (2 Bft)
19.07.2013 15:20 27,7 C 28,4 C 54 % 1022,5 hPa 0,0 l/m 2 min 0 min 4,1 UV-I 930 W/m 23,2 km/h (4 Bft)
19.07.2013 15:22 27,8 C 27,9 C 53 % 1022,6 hPa 0,0 l/m 2 min 0 min 3,8 UV-I 930 W/m 28,3 km/h (4 Bft)
19.07.2013 15:24 27,7 C 27,3 C 53 % 1022,6 hPa 0,0 l/m 0 min 0 min 1,6 UV-I 218 W/m 20,6 km/h (4 Bft)
19.07.2013 15:26 27,6 C 26,8 C 53 % 1022,6 hPa 0,0 l/m 0 min 0 min 1,7 UV-I 209 W/m 18,0 km/h (3 Bft)
19.07.2013 15:28 27,4 C 26,2 C 53 % 1022,6 hPa 0,0 l/m 0 min 0 min 1,8 UV-I 213 W/m 18,0 km/h (3 Bft)
19.07.2013 15:30 27,3 C 26,2 C 54 % 1022,6 hPa 0,0 l/m 0 min 0 min 2,0 UV-I 236 W/m 12,9 km/h (3 Bft)
19.07.2013 15:32 27,2 C 26,8 C 54 % 1022,6 hPa 0,0 l/m 2 min 0 min 2,3 UV-I 707 W/m 25,7 km/h (4 Bft)
19.07.2013 15:34 27,1 C 26,8 C 54 % 1022,6 hPa 0,0 l/m 0 min 0 min 2,1 UV-I 237 W/m 12,9 km/h (3 Bft)
19.07.2013 15:36 27,1 C 26,8 C 54 % 1022,5 hPa 0,0 l/m 0 min 0 min 2,9 UV-I 325 W/m 2,6 km/h (1 Bft)
19.07.2013 15:38 27,2 C 27,3 C 55 % 1022,5 hPa 0,0 l/m 2 min 0 min 3,7 UV-I 819 W/m 10,3 km/h (2 Bft)
19.07.2013 15:40 27,3 C 27,9 C 53 % 1022,5 hPa 0,0 l/m 2 min 0 min 3,8 UV-I 881 W/m 23,2 km/h (4 Bft)
19.07.2013 15:42 27,5 C 27,9 C 53 % 1022,4 hPa 0,0 l/m 2 min 0 min 3,4 UV-I 891 W/m 12,9 km/h (3 Bft)
19.07.2013 15:44 27,6 C 27,9 C 54 % 1022,4 hPa 0,0 l/m 0 min 0 min 1,8 UV-I 246 W/m 7,7 km/h (2 Bft)
19.07.2013 15:46 27,6 C 27,3 C 53 % 1022,5 hPa 0,0 l/m 0 min 0 min 2,0 UV-I 309 W/m 20,6 km/h (4 Bft)
19.07.2013 15:48 27,6 C 27,3 C 53 % 1022,5 hPa 0,0 l/m 2 min 0 min 3,5 UV-I 842 W/m 15,4 km/h (3 Bft)
19.07.2013 15:50 27,6 C 27,3 C 53 % 1022,4 hPa 0,0 l/m 2 min 0 min 3,5 UV-I 802 W/m 28,3 km/h (4 Bft)
19.07.2013 15:52 27,5 C 27,3 C 53 % 1022,4 hPa 0,0 l/m 2 min 0 min 3,5 UV-I 791 W/m 23,2 km/h (4 Bft)
19.07.2013 15:54 27,5 C 26,8 C 53 % 1022,4 hPa 0,0 l/m 2 min 0 min 2,5 UV-I 791 W/m 28,3 km/h (4 Bft)
19.07.2013 15:56 27,4 C 26,8 C 53 % 1022,4 hPa 0,0 l/m 2 min 0 min 3,6 UV-I 772 W/m 33,5 km/h (5 Bft)
19.07.2013 15:58 27,4 C 27,3 C 53 % 1022,3 hPa 0,0 l/m 2 min 0 min 3,5 UV-I 779 W/m 12,9 km/h (3 Bft)
19.07.2013 16:00 27,5 C 27,3 C 53 % 1022,4 hPa 0,0 l/m 2 min 0 min 3,5 UV-I 791 W/m 18,0 km/h (3 Bft)
19.07.2013 16:02 27,7 C 27,9 C 54 % 1022,3 hPa 0,0 l/m 2 min 0 min 3,5 UV-I 796 W/m 12,9 km/h (3 Bft)
19.07.2013 16:06 28,0 C 28,4 C 52 % 1022,2 hPa 0,0 l/m 2 min 0 min 3,6 UV-I 835 W/m 25,7 km/h (4 Bft)
19.07.2013 16:08 28,0 C 27,9 C 51 % 1022,2 hPa 0,0 l/m 2 min 0 min 2,7 UV-I 784 W/m 25,7 km/h (4 Bft)
19.07.2013 16:10 28,0 C 27,9 C 51 % 1022,2 hPa 0,0 l/m 2 min 0 min 3,4 UV-I 784 W/m 12,9 km/h (3 Bft)
19.07.2013 16:12 28,0 C 27,9 C 52 % 1022,2 hPa 0,0 l/m 2 min 0 min 3,5 UV-I 858 W/m 33,5 km/h (5 Bft)
19.07.2013 16:14 28,0 C 28,4 C 52 % 1022,2 hPa 0,0 l/m 2 min 0 min 3,1 UV-I 833 W/m 23,2 km/h (4 Bft)
19.07.2013 16:16 28,0 C 27,9 C 52 % 1022,4 hPa 0,0 l/m 2 min 0 min 1,7 UV-I 833 W/m 33,5 km/h (5 Bft)
19.07.2013 16:18 27,8 C 27,3 C 52 % 1022,2 hPa 0,0 l/m 0 min 0 min 1,6 UV-I 206 W/m 25,7 km/h (4 Bft)
19.07.2013 16:20 27,6 C 26,8 C 53 % 1022,2 hPa 0,0 l/m 0 min 0 min 2,1 UV-I 243 W/m 25,7 km/h (4 Bft)
19.07.2013 16:22 27,4 C 26,2 C 53 % 1022,3 hPa 0,0 l/m 0 min 0 min 3,1 UV-I 243 W/m 25,7 km/h (4 Bft)
19.07.2013 16:24 27,2 C 26,8 C 53 % 1022,3 hPa 0,0 l/m 2 min 0 min 3,2 UV-I 728 W/m 25,7 km/h (4 Bft)
19.07.2013 16:26 27,2 C 26,8 C 54 % 1022,2 hPa 0,0 l/m 2 min 0 min 3,1 UV-I 708 W/m 23,2 km/h (4 Bft)
19.07.2013 16:28 27,2 C 26,8 C 53 % 1022,2 hPa 0,0 l/m 2 min 0 min 2,6 UV-I 703 W/m 28,3 km/h (4 Bft)
19.07.2013 16:30 27,2 C 27,3 C 52 % 1022,1 hPa 0,0 l/m 2 min 0 min 3,0 UV-I 703 W/m 23,2 km/h (4 Bft)
19.07.2013 16:32 27,2 C 29,0 C 53 % 1022,2 hPa 0,0 l/m 2 min 0 min 3,0 UV-I 684 W/m 10,3 km/h (2 Bft)
19.07.2013 16:34 27,3 C 29,6 C 53 % 1022,1 hPa 0,0 l/m 2 min 0 min 2,9 UV-I 671 W/m 10,3 km/h (2 Bft)
19.07.2013 16:36 27,6 C 29,6 C 52 % 1022,1 hPa 0,0 l/m 2 min 0 min 3,0 UV-I 714 W/m 18,0 km/h (3 Bft)
19.07.2013 16:38 27,7 C 28,4 C 51 % 1022,1 hPa 0,0 l/m 2 min 0 min 2,4 UV-I 703 W/m 15,4 km/h (3 Bft)
19.07.2013 16:40 27,7 C 27,9 C 51 % 1022,1 hPa 0,0 l/m 2 min 0 min 2,9 UV-I 703 W/m 28,3 km/h (4 Bft)
19.07.2013 16:42 27,7 C 27,9 C 51 % 1022,1 hPa 0,0 l/m 2 min 0 min 2,8 UV-I 756 W/m 18,0 km/h (3 Bft)
19.07.2013 16:44 27,7 C 27,3 C 52 % 1022,0 hPa 0,0 l/m 2 min 0 min 1,8 UV-I 756 W/m 18,0 km/h (3 Bft)
19.07.2013 16:46 27,7 C 27,3 C 52 % 1022,0 hPa 0,0 l/m 0 min 0 min 2,5 UV-I 299 W/m 23,2 km/h (4 Bft)
19.07.2013 16:48 27,6 C 27,3 C 53 % 1022,0 hPa 0,0 l/m 0 min 0 min 1,5 UV-I 227 W/m 23,2 km/h (4 Bft)
19.07.2013 16:50 27,6 C 27,3 C 54 % 1022,0 hPa 0,0 l/m 0 min 0 min 1,4 UV-I 193 W/m 20,6 km/h (4 Bft)
19.07.2013 16:52 27,4 C 26,8 C 53 % 1021,9 hPa 0,0 l/m 0 min 0 min 1,4 UV-I 172 W/m 23,2 km/h (4 Bft)
19.07.2013 16:54 27,3 C 26,2 C 53 % 1022,0 hPa 0,0 l/m 0 min 0 min 2,5 UV-I 207 W/m 18,0 km/h (3 Bft)
19.07.2013 16:56 27,2 C 26,2 C 53 % 1022,0 hPa 0,0 l/m 2 min 0 min 2,4 UV-I 652 W/m 33,5 km/h (5 Bft)
19.07.2013 16:58 27,2 C 26,8 C 54 % 1021,8 hPa 0,0 l/m 2 min 0 min 2,4 UV-I 679 W/m 15,4 km/h (3 Bft)
19.07.2013 17:00 27,2 C 26,8 C 54 % 1021,9 hPa 0,0 l/m 2 min 0 min 2,4 UV-I 701 W/m 20,6 km/h (4 Bft)
19.07.2013 17:02 27,2 C 27,3 C 55 % 1021,8 hPa 0,0 l/m 2 min 0 min 2,3 UV-I 689 W/m 23,2 km/h (4 Bft)
19.07.2013 17:06 27,3 C 27,3 C 55 % 1021,9 hPa 0,0 l/m 2 min 0 min 2,3 UV-I 703 W/m 20,6 km/h (4 Bft)
19.07.2013 17:08 27,3 C 27,3 C 55 % 1021,8 hPa 0,0 l/m 2 min 0 min 2,1 UV-I 687 W/m 25,7 km/h (4 Bft)
19.07.2013 17:10 27,3 C 26,8 C 55 % 1021,8 hPa 0,0 l/m 2 min 0 min 2,0 UV-I 591 W/m 30,9 km/h (5 Bft)
19.07.2013 17:12 27,3 C 27,3 C 56 % 1021,9 hPa 0,0 l/m 2 min 0 min 1,9 UV-I 612 W/m 18,0 km/h (3 Bft)
19.07.2013 17:14 27,4 C 26,8 C 54 % 1021,8 hPa 0,0 l/m 2 min 0 min 1,4 UV-I 612 W/m 20,6 km/h (4 Bft)
19.07.2013 17:16 27,3 C 26,2 C 55 % 1021,8 hPa 0,0 l/m 2 min 0 min 1,7 UV-I 612 W/m 15,4 km/h (3 Bft)
19.07.2013 17:18 27,3 C 26,2 C 55 % 1021,8 hPa 0,0 l/m 2 min 0 min 2,0 UV-I 566 W/m 28,3 km/h (4 Bft)
19.07.2013 17:20 27,2 C 26,2 C 55 % 1021,8 hPa 0,0 l/m 2 min 0 min 2,0 UV-I 570 W/m 25,7 km/h (4 Bft)
19.07.2013 17:22 27,2 C 26,2 C 55 % 1021,8 hPa 0,0 l/m 2 min 0 min 2,0 UV-I 568 W/m 18,0 km/h (3 Bft)
19.07.2013 17:24 27,2 C 26,2 C 56 % 1021,8 hPa 0,0 l/m 2 min 0 min 2,0 UV-I 555 W/m 15,4 km/h (3 Bft)
19.07.2013 17:26 27,2 C 26,2 C 55 % 1021,8 hPa 0,0 l/m 2 min 0 min 2,0 UV-I 559 W/m 23,2 km/h (4 Bft)
19.07.2013 17:28 27,1 C 25,7 C 54 % 1021,8 hPa 0,0 l/m 2 min 0 min 1,9 UV-I 534 W/m 23,2 km/h (4 Bft)
19.07.2013 17:30 27,0 C 25,7 C 54 % 1021,8 hPa 0,0 l/m 2 min 0 min 1,8 UV-I 527 W/m 30,9 km/h (5 Bft)
19.07.2013 17:32 26,9 C 25,7 C 54 % 1021,8 hPa 0,0 l/m 2 min 0 min 1,8 UV-I 515 W/m 25,7 km/h (4 Bft)
19.07.2013 17:34 26,8 C 25,7 C 54 % 1021,8 hPa 0,0 l/m 2 min 0 min 1,8 UV-I 499 W/m 25,7 km/h (4 Bft)
19.07.2013 17:36 26,8 C 25,7 C 54 % 1021,8 hPa 0,0 l/m 2 min 0 min 1,7 UV-I 504 W/m 20,6 km/h (4 Bft)
19.07.2013 17:38 26,7 C 25,7 C 55 % 1021,7 hPa 0,0 l/m 2 min 0 min 1,7 UV-I 520 W/m 12,9 km/h (3 Bft)
19.07.2013 17:40 26,7 C 25,7 C 55 % 1021,7 hPa 0,0 l/m 2 min 0 min 1,8 UV-I 526 W/m 23,2 km/h (4 Bft)
19.07.2013 17:42 26,7 C 25,7 C 56 % 1021,7 hPa 0,0 l/m 2 min 0 min 1,6 UV-I 524 W/m 20,6 km/h (4 Bft)
19.07.2013 17:44 26,7 C 25,7 C 57 % 1021,6 hPa 0,0 l/m 2 min 0 min 1,5 UV-I 520 W/m 18,0 km/h (3 Bft)
19.07.2013 17:46 26,7 C 25,7 C 57 % 1021,6 hPa 0,0 l/m 0 min 0 min 0,8 UV-I 123 W/m 23,2 km/h (4 Bft)
19.07.2013 17:48 26,6 C 25,1 C 56 % 1021,7 hPa 0,0 l/m 0 min 0 min 0,8 UV-I 114 W/m 23,2 km/h (4 Bft)
19.07.2013 17:50 26,5 C 25,1 C 57 % 1021,8 hPa 0,0 l/m 0 min 0 min 0,8 UV-I 111 W/m 15,4 km/h (3 Bft)
19.07.2013 17:52 26,3 C 25,1 C 57 % 1021,7 hPa 0,0 l/m 0 min 0 min 0,9 UV-I 127 W/m 20,6 km/h (4 Bft)
19.07.2013 17:54 26,2 C 25,1 C 57 % 1021,6 hPa 0,0 l/m 2 min 0 min 1,4 UV-I 501 W/m 20,6 km/h (4 Bft)
19.07.2013 17:56 26,1 C 25,1 C 58 % 1021,6 hPa 0,0 l/m 2 min 0 min 1,4 UV-I 501 W/m 18,0 km/h (3 Bft)
19.07.2013 17:58 26,1 C 25,1 C 58 % 1021,7 hPa 0,0 l/m 2 min 0 min 1,3 UV-I 471 W/m 12,9 km/h (3 Bft)
19.07.2013 18:00 26,2 C 25,1 C 57 % 1021,6 hPa 0,0 l/m 2 min 0 min 1,3 UV-I 475 W/m 23,2 km/h (4 Bft)
19.07.2013 18:02 26,2 C 25,1 C 57 % 1021,6 hPa 0,0 l/m 2 min 0 min 1,2 UV-I 455 W/m 18,0 km/h (3 Bft)
19.07.2013 18:06 26,2 C 25,1 C 57 % 1021,5 hPa 0,0 l/m 2 min 0 min 1,2 UV-I 510 W/m 20,6 km/h (4 Bft)
19.07.2013 18:08 26,3 C 25,7 C 58 % 1021,5 hPa 0,0 l/m 2 min 0 min 0,7 UV-I 513 W/m 7,7 km/h (2 Bft)
19.07.2013 18:10 26,3 C 25,7 C 57 % 1021,6 hPa 0,0 l/m 0 min 0 min 0,6 UV-I 218 W/m 20,6 km/h (4 Bft)
19.07.2013 18:12 26,3 C 25,1 C 57 % 1021,6 hPa 0,0 l/m 0 min 0 min 0,6 UV-I 151 W/m 30,9 km/h (5 Bft)
19.07.2013 18:14 26,2 C 25,1 C 56 % 1021,5 hPa 0,0 l/m 0 min 0 min 0,5 UV-I 135 W/m 28,3 km/h (4 Bft)
19.07.2013 18:16 26,1 C 25,1 C 56 % 1021,5 hPa 0,0 l/m 0 min 0 min 0,5 UV-I 121 W/m 20,6 km/h (4 Bft)
19.07.2013 18:18 26,1 C 21,2 C 57 % 1021,5 hPa 0,0 l/m 0 min 0 min 0,5 UV-I 121 W/m 20,6 km/h (4 Bft)
19.07.2013 18:20 25,9 C 21,2 C 57 % 1021,4 hPa 0,0 l/m 0 min 0 min 0,5 UV-I 118 W/m 15,4 km/h (3 Bft)
19.07.2013 18:22 25,9 C 22,3 C 58 % 1021,4 hPa 0,0 l/m 0 min 0 min 0,6 UV-I 141 W/m 10,3 km/h (2 Bft)
19.07.2013 18:24 25,8 C 23,4 C 58 % 1021,4 hPa 0,0 l/m 0 min 0 min 0,8 UV-I 141 W/m 20,6 km/h (4 Bft)
19.07.2013 18:26 25,8 C 24,0 C 58 % 1021,4 hPa 0,0 l/m 0 min 0 min 0,8 UV-I 127 W/m 15,4 km/h (3 Bft)
19.07.2013 18:28 25,8 C 24,0 C 59 % 1021,4 hPa 0,0 l/m 2 min 0 min 0,8 UV-I 387 W/m 12,9 km/h (3 Bft)
19.07.2013 18:30 25,8 C 24,0 C 59 % 1021,4 hPa 0,0 l/m 2 min 0 min 0,7 UV-I 396 W/m 12,9 km/h (3 Bft)
19.07.2013 18:32 25,8 C 24,6 C 59 % 1021,3 hPa 0,0 l/m 2 min 0 min 0,6 UV-I 311 W/m 15,4 km/h (3 Bft)
19.07.2013 18:34 25,8 C 24,6 C 59 % 1021,3 hPa 0,0 l/m 0 min 0 min 0,7 UV-I 169 W/m 15,4 km/h (3 Bft)
19.07.2013 18:35 25,8 C 25,1 C 59 % 1021,3 hPa 0,0 l/m 0 min 0 min 0,5 UV-I 202 W/m 20,6 km/h (4 Bft)
19.07.2013 18:36 25,9 C 25,1 C 58 % 1021,3 hPa 0,0 l/m 1 min 0 min 0,5 UV-I 271 W/m 28,3 km/h (4 Bft)
19.07.2013 18:37 25,9 C 25,1 C 58 % 1021,2 hPa 0,0 l/m 1 min 0 min 0,7 UV-I 264 W/m 25,7 km/h (4 Bft)
19.07.2013 18:38 25,9 C 25,1 C 58 % 1021,3 hPa 0,0 l/m 1 min 0 min 0,6 UV-I 253 W/m 20,6 km/h (4 Bft)
19.07.2013 18:39 25,9 C 25,1 C 58 % 1021,3 hPa 0,0 l/m 1 min 0 min 0,5 UV-I 250 W/m 18,0 km/h (3 Bft)
19.07.2013 18:40 25,9 C 25,1 C 58 % 1021,3 hPa 0,0 l/m 1 min 0 min 0,0 UV-I 250 W/m 23,2 km/h (4 Bft)
19.07.2013 18:44 26,1 C 25,7 C 57 % 1021,3 hPa 0,0 l/m 0 min 0 min 0,0 UV-I 206 W/m 15,4 km/h (3 Bft)
19.07.2013 18:46 26,1 C 25,7 C 57 % 1021,3 hPa 0,0 l/m 0 min 0 min 0,0 UV-I 197 W/m 25,7 km/h (4 Bft)
19.07.2013 18:48 26,1 C 25,1 C 57 % 1021,3 hPa 0,0 l/m 0 min 0 min 0,0 UV-I 204 W/m 23,2 km/h (4 Bft)
19.07.2013 18:50 26,1 C 25,7 C 57 % 1021,2 hPa 0,0 l/m 0 min 0 min 0,0 UV-I 202 W/m 20,6 km/h (4 Bft)
19.07.2013 18:52 26,1 C 25,1 C 57 % 1021,3 hPa 0,0 l/m 0 min 0 min 0,0 UV-I 197 W/m 30,9 km/h (5 Bft)
19.07.2013 18:53 26,1 C 25,1 C 57 % 1021,3 hPa 0,0 l/m 0 min 0 min 0,0 UV-I 206 W/m 20,6 km/h (4 Bft)
19.07.2013 18:54 26,1 C 25,1 C 57 % 1021,3 hPa 0,0 l/m 0 min 0 min 0,0 UV-I 207 W/m 12,9 km/h (3 Bft)
19.07.2013 18:58 26,1 C 25,1 C 57 % 1021,3 hPa 0,0 l/m 2 min 0 min 0,0 UV-I 262 W/m 7,7 km/h (2 Bft)
19.07.2013 19:00 26,1 C 25,1 C 57 % 1021,2 hPa 0,0 l/m 0 min 0 min 0,0 UV-I 169 W/m 12,9 km/h (3 Bft)
19.07.2013 19:01 26,1 C 25,1 C 57 % 1021,2 hPa 0,0 l/m 0 min 0 min 0,0 UV-I 156 W/m 18,0 km/h (3 Bft)
19.07.2013 19:02 26,1 C 25,1 C 57 % 1021,2 hPa 0,0 l/m 0 min 0 min 0,0 UV-I 142 W/m 33,5 km/h (5 Bft)
19.07.2013 19:08 26,0 C 25,1 C 56 % 1021,3 hPa 0,0 l/m 0 min 0 min 0,0 UV-I 104 W/m 23,2 km/h (4 Bft)
19.07.2013 19:10 25,9 C 24,6 C 56 % 1021,2 hPa 0,0 l/m 0 min 0 min 0,0 UV-I 93 W/m 18,0 km/h (3 Bft)
19.07.2013 19:12 25,8 C 24,6 C 57 % 1021,2 hPa 0,0 l/m 0 min 0 min 0,0 UV-I 84 W/m 15,4 km/h (3 Bft)
19.07.2013 19:14 25,8 C 24,6 C 57 % 1021,2 hPa 0,0 l/m 0 min 0 min 0,0 UV-I 70 W/m 18,0 km/h (3 Bft)
19.07.2013 19:16 25,8 C 24,6 C 57 % 1021,2 hPa 0,0 l/m 0 min 0 min 0,0 UV-I 67 W/m 20,6 km/h (4 Bft)
19.07.2013 19:18 25,7 C 24,6 C 57 % 1021,1 hPa 0,0 l/m 0 min 0 min 0,0 UV-I 67 W/m 15,4 km/h (3 Bft)
19.07.2013 19:20 25,7 C 24,6 C 57 % 1021,3 hPa 0,0 l/m 0 min 0 min 0,0 UV-I 67 W/m 18,0 km/h (3 Bft)
19.07.2013 19:22 25,7 C 24,6 C 57 % 1021,3 hPa 0,0 l/m 0 min 0 min 0,0 UV-I 65 W/m 20,6 km/h (4 Bft)
19.07.2013 19:24 25,7 C 24,6 C 57 % 1021,2 hPa 0,0 l/m 0 min 0 min 0,0 UV-I 70 W/m 18,0 km/h (3 Bft)
19.07.2013 19:26 25,6 C 24,6 C 56 % 1021,2 hPa 0,0 l/m 0 min 0 min 0,0 UV-I 60 W/m 25,7 km/h (4 Bft)
19.07.2013 19:28 25,5 C 24,0 C 57 % 1021,2 hPa 0,0 l/m 0 min 0 min 0,0 UV-I 58 W/m 12,9 km/h (3 Bft)
19.07.2013 19:30 25,4 C 24,0 C 57 % 1021,2 hPa 0,0 l/m 0 min 0 min 0,0 UV-I 56 W/m 23,2 km/h (4 Bft)
19.07.2013 19:32 25,3 C 24,0 C 57 % 1021,2 hPa 0,0 l/m 0 min 0 min 0,0 UV-I 53 W/m 30,9 km/h (5 Bft)
19.07.2013 19:34 25,3 C 24,0 C 57 % 1021,2 hPa 0,0 l/m 0 min 0 min 0,0 UV-I 53 W/m 18,0 km/h (3 Bft)
19.07.2013 19:36 25,2 C 24,0 C 57 % 1021,2 hPa 0,0 l/m 0 min 0 min 0,0 UV-I 51 W/m 18,0 km/h (3 Bft)
19.07.2013 19:38 25,1 C 23,4 C 57 % 1021,1 hPa 0,0 l/m 0 min 0 min 0,0 UV-I 47 W/m 20,6 km/h (4 Bft)
19.07.2013 19:40 24,9 C 23,4 C 58 % 1021,2 hPa 0,0 l/m 0 min 0 min 0,0 UV-I 47 W/m 15,4 km/h (3 Bft)
19.07.2013 19:42 24,9 C 23,4 C 58 % 1021,1 hPa 0,0 l/m 0 min 0 min 0,0 UV-I 49 W/m 7,7 km/h (2 Bft)
19.07.2013 19:44 24,9 C 23,4 C 58 % 1021,2 hPa 0,0 l/m 0 min 0 min 0,0 UV-I 49 W/m 15,4 km/h (3 Bft)
19.07.2013 19:46 24,9 C 23,4 C 58 % 1021,2 hPa 0,0 l/m 0 min 0 min 0,0 UV-I 49 W/m 20,6 km/h (4 Bft)
19.07.2013 19:48 24,9 C 24,0 C 58 % 1021,2 hPa 0,0 l/m 0 min 0 min 0,0 UV-I 47 W/m 25,7 km/h (4 Bft)
19.07.2013 19:50 24,8 C 24,0 C 58 % 1021,2 hPa 0,0 l/m 0 min 0 min 0,0 UV-I 47 W/m 18,0 km/h (3 Bft)
19.07.2013 19:52 24,8 C 23,4 C 58 % 1021,2 hPa 0,0 l/m 0 min 0 min 0,0 UV-I 46 W/m 18,0 km/h (3 Bft)
19.07.2013 19:54 24,8 C 23,4 C 58 % 1021,2 hPa 0,0 l/m 0 min 0 min 0,0 UV-I 44 W/m 18,0 km/h (3 Bft)
19.07.2013 19:56 24,8 C 23,4 C 58 % 1021,2 hPa 0,0 l/m 0 min 0 min 0,0 UV-I 44 W/m 18,0 km/h (3 Bft)
19.07.2013 19:58 24,8 C 23,4 C 58 % 1021,1 hPa 0,0 l/m 0 min 0 min 0,0 UV-I 42 W/m 15,4 km/h (3 Bft)
19.07.2013 20:00 24,8 C 23,4 C 58 % 1021,2 hPa 0,0 l/m 0 min 0 min 0,0 UV-I 42 W/m 18,0 km/h (3 Bft)
19.07.2013 20:02 24,8 C 23,4 C 59 % 1021,1 hPa 0,0 l/m 0 min 0 min 0,0 UV-I 42 W/m 20,6 km/h (4 Bft)
19.07.2013 20:06 24,8 C 23,4 C 58 % 1021,1 hPa 0,0 l/m 0 min 0 min 0,0 UV-I 44 W/m 15,4 km/h (3 Bft)
19.07.2013 20:08 24,7 C 23,4 C 58 % 1021,2 hPa 0,0 l/m 0 min 0 min 0,0 UV-I 44 W/m 20,6 km/h (4 Bft)
19.07.2013 20:10 24,7 C 23,4 C 58 % 1021,1 hPa 0,0 l/m 0 min 0 min 0,0 UV-I 44 W/m 15,4 km/h (3 Bft)
19.07.2013 20:12 24,7 C 23,4 C 58 % 1021,2 hPa 0,0 l/m 0 min 0 min 0,0 UV-I 42 W/m 23,2 km/h (4 Bft)
19.07.2013 20:14 24,7 C 23,4 C 58 % 1021,2 hPa 0,0 l/m 0 min 0 min 0,0 UV-I 39 W/m 18,0 km/h (3 Bft)
19.07.2013 20:16 24,7 C 23,4 C 58 % 1021,2 hPa 0,0 l/m 0 min 0 min 0,0 UV-I 37 W/m 15,4 km/h (3 Bft)
19.07.2013 20:18 24,6 C 23,4 C 58 % 1021,2 hPa 0,0 l/m 0 min 0 min 0,0 UV-I 35 W/m 30,9 km/h (5 Bft)
19.07.2013 20:20 24,6 C 23,4 C 58 % 1021,1 hPa 0,0 l/m 0 min 0 min 0,0 UV-I 33 W/m 20,6 km/h (4 Bft)
19.07.2013 20:22 24,6 C 23,4 C 58 % 1021,1 hPa 0,0 l/m 0 min 0 min 0,0 UV-I 32 W/m 25,7 km/h (4 Bft)
19.07.2013 20:24 24,6 C 23,4 C 58 % 1021,1 hPa 0,0 l/m 0 min 0 min 0,0 UV-I 32 W/m 25,7 km/h (4 Bft)
19.07.2013 20:26 24,5 C 23,4 C 58 % 1021,2 hPa 0,0 l/m 0 min 0 min 0,0 UV-I 30 W/m 18,0 km/h (3 Bft)
19.07.2013 20:28 24,4 C 22,9 C 58 % 1021,2 hPa 0,0 l/m 0 min 0 min 0,0 UV-I 30 W/m 15,4 km/h (3 Bft)
19.07.2013 20:30 24,4 C 22,9 C 58 % 1021,2 hPa 0,0 l/m 0 min 0 min 0,0 UV-I 28 W/m 15,4 km/h (3 Bft)
19.07.2013 20:32 24,4 C 22,9 C 58 % 1021,2 hPa 0,0 l/m 0 min 0 min 0,0 UV-I 28 W/m 18,0 km/h (3 Bft)
19.07.2013 20:34 24,3 C 22,9 C 58 % 1021,1 hPa 0,0 l/m 0 min 0 min 0,0 UV-I 26 W/m 12,9 km/h (3 Bft)
19.07.2013 20:36 24,3 C 22,9 C 58 % 1021,1 hPa 0,0 l/m 0 min 0 min 0,0 UV-I 26 W/m 12,9 km/h (3 Bft)
19.07.2013 20:38 24,3 C 22,9 C 58 % 1021,2 hPa 0,0 l/m 0 min 0 min 0,0 UV-I 26 W/m 15,4 km/h (3 Bft)
19.07.2013 20:40 24,2 C 22,9 C 59 % 1021,1 hPa 0,0 l/m 0 min 0 min 0,0 UV-I 26 W/m 15,4 km/h (3 Bft)
19.07.2013 20:42 24,2 C 22,9 C 59 % 1021,2 hPa 0,0 l/m 0 min 0 min 0,0 UV-I 25 W/m 15,4 km/h (3 Bft)
19.07.2013 20:44 24,2 C 22,9 C 59 % 1021,1 hPa 0,0 l/m 0 min 0 min 0,0 UV-I 25 W/m 10,3 km/h (2 Bft)
19.07.2013 20:46 24,1 C 22,9 C 59 % 1021,2 hPa 0,0 l/m 0 min 0 min 0,0 UV-I 25 W/m 12,9 km/h (3 Bft)
19.07.2013 20:48 24,1 C 22,9 C 59 % 1021,2 hPa 0,0 l/m 0 min 0 min 0,0 UV-I 23 W/m 15,4 km/h (3 Bft)
19.07.2013 20:50 24,1 C 22,9 C 59 % 1021,2 hPa 0,0 l/m 0 min 0 min 0,0 UV-I 23 W/m 12,9 km/h (3 Bft)
19.07.2013 20:52 24,0 C 22,9 C 59 % 1021,2 hPa 0,0 l/m 0 min 0 min 0,0 UV-I 23 W/m 20,6 km/h (4 Bft)
19.07.2013 20:54 23,9 C 22,3 C 59 % 1021,2 hPa 0,0 l/m 0 min 0 min 0,0 UV-I 21 W/m 12,9 km/h (3 Bft)
19.07.2013 20:56 23,9 C 22,3 C 59 % 1021,2 hPa 0,0 l/m 0 min 0 min 0,0 UV-I 21 W/m 18,0 km/h (3 Bft)
19.07.2013 20:58 23,9 C 22,3 C 60 % 1021,2 hPa 0,0 l/m 0 min 0 min 0,0 UV-I 19 W/m 12,9 km/h (3 Bft)
19.07.2013 21:00 23,8 C 22,3 C 60 % 1021,2 hPa 0,0 l/m 0 min 0 min 0,0 UV-I 19 W/m 12,9 km/h (3 Bft)
19.07.2013 21:02 23,8 C 22,3 C 60 % 1021,2 hPa 0,0 l/m 0 min 0 min 0,0 UV-I 18 W/m 7,7 km/h (2 Bft)
19.07.2013 21:06 23,7 C 22,3 C 60 % 1021,2 hPa 0,0 l/m 0 min 0 min 0,0 UV-I 16 W/m 10,3 km/h (2 Bft)
19.07.2013 21:08 23,7 C 22,3 C 61 % 1021,2 hPa 0,0 l/m 0 min 0 min 0,0 UV-I 16 W/m 12,9 km/h (3 Bft)
19.07.2013 21:10 23,6 C 22,3 C 61 % 1021,2 hPa 0,0 l/m 0 min 0 min 0,0 UV-I 14 W/m 15,4 km/h (3 Bft)
19.07.2013 21:12 23,6 C 22,3 C 61 % 1021,2 hPa 0,0 l/m 0 min 0 min 0,0 UV-I 14 W/m 15,4 km/h (3 Bft)
19.07.2013 21:14 23,5 C 21,8 C 61 % 1021,2 hPa 0,0 l/m 0 min 0 min 0,0 UV-I 12 W/m 18,0 km/h (3 Bft)
19.07.2013 21:16 23,5 C 21,8 C 62 % 1021,2 hPa 0,0 l/m 0 min 0 min 0,0 UV-I 12 W/m 7,7 km/h (2 Bft)
19.07.2013 21:18 23,4 C 21,8 C 62 % 1021,2 hPa 0,0 l/m 0 min 0 min 0,0 UV-I 12 W/m 15,4 km/h (3 Bft)
19.07.2013 21:20 23,4 C 21,8 C 62 % 1021,2 hPa 0,0 l/m 0 min 0 min 0,0 UV-I 11 W/m 15,4 km/h (3 Bft)
19.07.2013 21:22 23,3 C 21,8 C 62 % 1021,2 hPa 0,0 l/m 0 min 0 min 0,0 UV-I 11 W/m 12,9 km/h (3 Bft)
19.07.2013 21:24 23,3 C 21,8 C 62 % 1021,3 hPa 0,0 l/m 0 min 0 min 0,0 UV-I 9 W/m 7,7 km/h (2 Bft)
19.07.2013 21:26 23,3 C 21,8 C 62 % 1021,2 hPa 0,0 l/m 0 min 0 min 0,0 UV-I 7 W/m 7,7 km/h (2 Bft)
19.07.2013 21:28 23,2 C 21,8 C 62 % 1021,4 hPa 0,0 l/m 0 min 0 min 0,0 UV-I 7 W/m 2,6 km/h (1 Bft)
19.07.2013 21:30 23,2 C 21,8 C 62 % 1021,4 hPa 0,0 l/m 0 min 0 min 0,0 UV-I 7 W/m 10,3 km/h (2 Bft)
19.07.2013 21:32 23,1 C 21,2 C 62 % 1021,4 hPa 0,0 l/m 0 min 0 min 0,0 UV-I 7 W/m 7,7 km/h (2 Bft)
19.07.2013 21:34 23,1 C 21,2 C 63 % 1021,4 hPa 0,0 l/m 0 min 0 min 0,0 UV-I 5 W/m 2,6 km/h (1 Bft)
19.07.2013 21:36 23,0 C 21,2 C 63 % 1021,4 hPa 0,0 l/m 0 min 0 min 0,0 UV-I 5 W/m 7,7 km/h (2 Bft)
19.07.2013 21:38 23,0 C 21,2 C 63 % 1021,4 hPa 0,0 l/m 0 min 0 min 0,0 UV-I 5 W/m 5,1 km/h (1 Bft)
19.07.2013 21:40 22,9 C 21,2 C 63 % 1021,5 hPa 0,0 l/m 0 min 0 min 0,0 UV-I 5 W/m 7,7 km/h (2 Bft)
19.07.2013 21:42 22,8 C 21,2 C 64 % 1021,6 hPa 0,0 l/m 0 min 0 min 0,0 UV-I 0 W/m 10,3 km/h (2 Bft)
19.07.2013 21:44 22,8 C 21,2 C 64 % 1021,6 hPa 0,0 l/m 0 min 0 min 0,0 UV-I 0 W/m 15,4 km/h (3 Bft)
19.07.2013 21:46 22,7 C 21,2 C 64 % 1021,7 hPa 0,0 l/m 0 min 0 min 0,0 UV-I 0 W/m 12,9 km/h (3 Bft)
19.07.2013 21:48 22,6 C 21,2 C 65 % 1021,7 hPa 0,0 l/m 0 min 0 min 0,0 UV-I 0 W/m 10,3 km/h (2 Bft)
19.07.2013 21:50 22,6 C 21,2 C 65 % 1021,8 hPa 0,0 l/m 0 min 0 min 0,0 UV-I 0 W/m 12,9 km/h (3 Bft)
19.07.2013 21:52 22,4 C 21,2 C 65 % 1021,7 hPa 0,0 l/m 0 min 0 min 0,0 UV-I 0 W/m 12,9 km/h (3 Bft)
19.07.2013 21:54 22,4 C 20,7 C 66 % 1021,7 hPa 0,0 l/m 0 min 0 min 0,0 UV-I 0 W/m 10,3 km/h (2 Bft)
19.07.2013 21:56 22,3 C 20,7 C 67 % 1021,8 hPa 0,0 l/m 0 min 0 min 0,0 UV-I 0 W/m 12,9 km/h (3 Bft)
19.07.2013 21:58 22,3 C 20,7 C 67 % 1021,7 hPa 0,0 l/m 0 min 0 min 0,0 UV-I 0 W/m 18,0 km/h (3 Bft)
19.07.2013 22:00 22,2 C 20,7 C 68 % 1021,7 hPa 0,0 l/m 0 min 0 min 0,0 UV-I 0 W/m 10,3 km/h (2 Bft)
19.07.2013 22:02 22,2 C 20,7 C 68 % 1021,7 hPa 0,0 l/m 0 min 0 min 0,0 UV-I 0 W/m 12,9 km/h (3 Bft)
19.07.2013 22:06 22,1 C 20,7 C 68 % 1021,8 hPa 0,0 l/m 0 min 0 min 0,0 UV-I 0 W/m 15,4 km/h (3 Bft)
19.07.2013 22:08 21,9 C 20,7 C 69 % 1021,8 hPa 0,0 l/m 0 min 0 min 0,0 UV-I 0 W/m 12,9 km/h (3 Bft)
19.07.2013 22:10 21,9 C 20,1 C 69 % 1021,8 hPa 0,0 l/m 0 min 0 min 0,0 UV-I 0 W/m 10,3 km/h (2 Bft)
19.07.2013 22:12 21,9 C 20,1 C 69 % 1021,9 hPa 0,0 l/m 0 min 0 min 0,0 UV-I 0 W/m 0,0 km/h (0 Bft)
19.07.2013 22:14 21,8 C 20,1 C 70 % 1021,9 hPa 0,0 l/m 0 min 0 min 0,0 UV-I 0 W/m 2,6 km/h (1 Bft)
19.07.2013 22:16 21,8 C 20,1 C 70 % 1022,0 hPa 0,0 l/m 0 min 0 min 0,0 UV-I 0 W/m 10,3 km/h (2 Bft)
19.07.2013 22:18 21,7 C 20,1 C 70 % 1021,9 hPa 0,0 l/m 0 min 0 min 0,0 UV-I 0 W/m 10,3 km/h (2 Bft)
19.07.2013 22:20 21,7 C 20,1 C 70 % 1022,0 hPa 0,0 l/m 0 min 0 min 0,0 UV-I 0 W/m 7,7 km/h (2 Bft)
19.07.2013 22:22 21,6 C 20,1 C 70 % 1022,1 hPa 0,0 l/m 0 min 0 min 0,0 UV-I 0 W/m 12,9 km/h (3 Bft)
19.07.2013 22:24 21,6 C 20,1 C 71 % 1022,1 hPa 0,0 l/m 0 min 0 min 0,0 UV-I 0 W/m 18,0 km/h (3 Bft)
19.07.2013 22:26 21,5 C 20,1 C 71 % 1022,1 hPa 0,0 l/m 0 min 0 min 0,0 UV-I 0 W/m 7,7 km/h (2 Bft)
19.07.2013 22:28 21,4 C 20,1 C 71 % 1022,2 hPa 0,0 l/m 0 min 0 min 0,0 UV-I 0 W/m 18,0 km/h (3 Bft)
19.07.2013 22:30 21,4 C 20,1 C 72 % 1022,2 hPa 0,0 l/m 0 min 0 min 0,0 UV-I 0 W/m 10,3 km/h (2 Bft)
19.07.2013 22:32 21,3 C 20,1 C 72 % 1022,2 hPa 0,0 l/m 0 min 0 min 0,0 UV-I 0 W/m 7,7 km/h (2 Bft)
19.07.2013 22:34 21,3 C 19,6 C 72 % 1022,2 hPa 0,0 l/m 0 min 0 min 0,0 UV-I 0 W/m 7,7 km/h (2 Bft)
19.07.2013 22:36 21,3 C 19,6 C 73 % 1022,2 hPa 0,0 l/m 0 min 0 min 0,0 UV-I 0 W/m 12,9 km/h (3 Bft)
19.07.2013 22:38 21,2 C 19,6 C 73 % 1022,1 hPa 0,0 l/m 0 min 0 min 0,0 UV-I 0 W/m 10,3 km/h (2 Bft)
19.07.2013 22:40 21,2 C 19,6 C 73 % 1022,2 hPa 0,0 l/m 0 min 0 min 0,0 UV-I 0 W/m 15,4 km/h (3 Bft)
19.07.2013 22:42 21,1 C 19,6 C 73 % 1022,2 hPa 0,0 l/m 0 min 0 min 0,0 UV-I 0 W/m 15,4 km/h (3 Bft)
19.07.2013 22:44 21,1 C 19,6 C 73 % 1022,2 hPa 0,0 l/m 0 min 0 min 0,0 UV-I 0 W/m 15,4 km/h (3 Bft)
19.07.2013 22:46 20,9 C 19,6 C 73 % 1022,2 hPa 0,0 l/m 0 min 0 min 0,0 UV-I 0 W/m 12,9 km/h (3 Bft)
19.07.2013 22:48 20,9 C 19,6 C 73 % 1022,2 hPa 0,0 l/m 0 min 0 min 0,0 UV-I 0 W/m 10,3 km/h (2 Bft)
19.07.2013 22:50 20,9 C 19,6 C 73 % 1022,2 hPa 0,0 l/m 0 min 0 min 0,0 UV-I 0 W/m 12,9 km/h (3 Bft)
19.07.2013 22:52 20,8 C 19,6 C 73 % 1022,2 hPa 0,0 l/m 0 min 0 min 0,0 UV-I 0 W/m 10,3 km/h (2 Bft)
19.07.2013 22:54 20,8 C 19,6 C 73 % 1022,2 hPa 0,0 l/m 0 min 0 min 0,0 UV-I 0 W/m 12,9 km/h (3 Bft)
19.07.2013 22:56 20,8 C 19,6 C 73 % 1022,2 hPa 0,0 l/m 0 min 0 min 0,0 UV-I 0 W/m 12,9 km/h (3 Bft)
19.07.2013 22:58 20,7 C 19,6 C 73 % 1022,2 hPa 0,0 l/m 0 min 0 min 0,0 UV-I 0 W/m 10,3 km/h (2 Bft)
19.07.2013 23:00 20,7 C 19,6 C 74 % 1022,2 hPa 0,0 l/m 0 min 0 min 0,0 UV-I 0 W/m 10,3 km/h (2 Bft)
19.07.2013 23:02 20,7 C 19,6 C 73 % 1022,2 hPa 0,0 l/m 0 min 0 min 0,0 UV-I 0 W/m 10,3 km/h (2 Bft)
19.07.2013 23:06 20,6 C 19,0 C 73 % 1022,3 hPa 0,0 l/m 0 min 0 min 0,0 UV-I 0 W/m 12,9 km/h (3 Bft)
19.07.2013 23:08 20,6 C 19,0 C 74 % 1022,2 hPa 0,0 l/m 0 min 0 min 0,0 UV-I 0 W/m 10,3 km/h (2 Bft)
19.07.2013 23:10 20,5 C 19,0 C 74 % 1022,2 hPa 0,0 l/m 0 min 0 min 0,0 UV-I 0 W/m 12,9 km/h (3 Bft)
19.07.2013 23:12 20,5 C 19,0 C 74 % 1022,2 hPa 0,0 l/m 0 min 0 min 0,0 UV-I 0 W/m 15,4 km/h (3 Bft)
19.07.2013 23:14 20,4 C 19,0 C 74 % 1022,2 hPa 0,0 l/m 0 min 0 min 0,0 UV-I 0 W/m 12,9 km/h (3 Bft)
19.07.2013 23:16 20,4 C 19,0 C 74 % 1022,2 hPa 0,0 l/m 0 min 0 min 0,0 UV-I 0 W/m 12,9 km/h (3 Bft)
19.07.2013 23:18 20,4 C 19,0 C 74 % 1022,2 hPa 0,0 l/m 0 min 0 min 0,0 UV-I 0 W/m 10,3 km/h (2 Bft)
19.07.2013 23:20 20,3 C 19,0 C 74 % 1022,2 hPa 0,0 l/m 0 min 0 min 0,0 UV-I 0 W/m 12,9 km/h (3 Bft)
19.07.2013 23:22 20,3 C 19,0 C 74 % 1022,2 hPa 0,0 l/m 0 min 0 min 0,0 UV-I 0 W/m 10,3 km/h (2 Bft)
19.07.2013 23:24 20,3 C 19,0 C 74 % 1022,2 hPa 0,0 l/m 0 min 0 min 0,0 UV-I 0 W/m 10,3 km/h (2 Bft)
19.07.2013 23:26 20,2 C 19,0 C 74 % 1022,2 hPa 0,0 l/m 0 min 0 min 0,0 UV-I 0 W/m 10,3 km/h (2 Bft)
19.07.2013 23:28 20,2 C 19,0 C 74 % 1022,2 hPa 0,0 l/m 0 min 0 min 0,0 UV-I 0 W/m 10,3 km/h (2 Bft)
19.07.2013 23:30 20,2 C 19,0 C 74 % 1022,2 hPa 0,0 l/m 0 min 0 min 0,0 UV-I 0 W/m 7,7 km/h (2 Bft)
19.07.2013 23:32 20,1 C 19,0 C 74 % 1022,2 hPa 0,0 l/m 0 min 0 min 0,0 UV-I 0 W/m 7,7 km/h (2 Bft)
19.07.2013 23:34 20,1 C 18,4 C 74 % 1022,2 hPa 0,0 l/m 0 min 0 min 0,0 UV-I 0 W/m 7,7 km/h (2 Bft)
19.07.2013 23:36 20,1 C 18,4 C 74 % 1022,3 hPa 0,0 l/m 0 min 0 min 0,0 UV-I 0 W/m 7,7 km/h (2 Bft)
19.07.2013 23:38 20,0 C 18,4 C 74 % 1022,3 hPa 0,0 l/m 0 min 0 min 0,0 UV-I 0 W/m 7,7 km/h (2 Bft)
19.07.2013 23:40 19,9 C 18,4 C 75 % 1022,2 hPa 0,0 l/m 0 min 0 min 0,0 UV-I 0 W/m 10,3 km/h (2 Bft)
19.07.2013 23:42 19,9 C 18,4 C 75 % 1022,2 hPa 0,0 l/m 0 min 0 min 0,0 UV-I 0 W/m 0,0 km/h (0 Bft)
19.07.2013 23:44 19,9 C 18,4 C 75 % 1022,2 hPa 0,0 l/m 0 min 0 min 0,0 UV-I 0 W/m 7,7 km/h (2 Bft)
19.07.2013 23:46 19,8 C 18,4 C 75 % 1022,2 hPa 0,0 l/m 0 min 0 min 0,0 UV-I 0 W/m 7,7 km/h (2 Bft)
19.07.2013 23:48 19,8 C 18,4 C 75 % 1022,2 hPa 0,0 l/m 0 min 0 min 0,0 UV-I 0 W/m 10,3 km/h (2 Bft)
19.07.2013 23:50 19,8 C 18,4 C 75 % 1022,2 hPa 0,0 l/m 0 min 0 min 0,0 UV-I 0 W/m 5,1 km/h (1 Bft)
19.07.2013 23:52 19,7 C 18,4 C 75 % 1022,3 hPa 0,0 l/m 0 min 0 min 0,0 UV-I 0 W/m 10,3 km/h (2 Bft)
19.07.2013 23:54 19,7 C 18,4 C 75 % 1022,3 hPa 0,0 l/m 0 min 0 min 0,0 UV-I 0 W/m 7,7 km/h (2 Bft)
19.07.2013 23:56 19,7 C 18,4 C 75 % 1022,3 hPa 0,0 l/m 0 min 0 min 0,0 UV-I 0 W/m 7,7 km/h (2 Bft)
19.07.2013 23:58 19,6 C 18,4 C 75 % 1022,4 hPa 0,0 l/m 0 min 0 min 0,0 UV-I 0 W/m 7,7 km/h (2 Bft)
_ Min-Zeit 06:22 05:52 16:08 19:18 - - - - - 00:36
Minimum _ 15,8 C 14,6 C 51 % 1021,1 hPa - - - - - 0,0 km/h (0 Bft)
_ Max-Zeit 14:22 14:12 04:18 09:10 00:00 08:06 00:00 14:06 13:44 13:46
Maximum _ 28,2 C 31,8 C 86 % 1023,9 hPa 0,0 l/m 2 min 0 min 5,1 UV-I 946 W/m 33,5 km/h
NW (5 Bft)
Durchschnitt _ 22,4 C 21,9 C 68 % 1022,8 hPa #0,0 l/m #8:45 h #0 min. 2,6 UV-I 405 W/m 11,8 km/h (2 Bft)
© 2013 W. Hausmann